GFSSGP_con_mucape_003.txt.gz
CAPE
0 0 0 0 0 0 0 0 0 134 120 119 243 221 171 137 195 387 487 706 873 1092 1027 800 682 881 1080 1024 1083 1131 1138 888 778 803 691 563 548 505 421 328 534 280 58 34 11 0 0 0 0
0 0 0 0 0 0 0 0 117 159 102 95 107 109 107 57 30 616 772 1081 1110 1211 1084 729 709 941 1156 1109 1291 1229 1134 903 913 871 675 580 470 381 351 325 423 111 27 3 0 0 0 0 0
0 0 0 0 0 0 0 56 131 82 26 1 25 35 95 67 22 670 921 1253 1330 1229 1095 871 788 902 1119 1233 1115 1324 1321 1291 1306 927 657 549 392 213 188 115 126 4 0 0 0 0 0 0 0
0 0 0 0 0 0 0 140 187 49 9 0 0 10 114 341 682 714 1411 1406 1275 1037 970 824 786 944 1059 1238 1516 1471 1380 1303 1246 1004 683 524 324 151 66 13 0 0 0 0 0 0 0 0 0
0 0 0 0 0 0 5 137 200 77 18 5 0 0 135 982 1037 1340 1365 1259 1151 1040 1135 1095 940 954 1099 1410 1568 1428 1239 1098 1127 994 766 519 339 144 17 0 0 0 0 0 0 0 0 1 49
0 0 0 0 0 1 3 173 141 51 43 17 20 98 329 1240 1380 1340 1317 1092 1086 1095 1143 1108 1067 1133 1347 1421 1342 1105 953 978 978 907 687 496 384 164 18 24 5 0 0 13 14 0 21 72 142
0 0 0 0 7 32 58 232 72 63 87 53 121 248 922 1187 1304 1243 1133 1152 1194 1412 1441 1413 1401 1470 1195 1137 1105 1005 867 915 879 804 707 535 372 228 121 121 185 198 100 143 182 155 182 188 283
0 0 0 2 20 53 92 71 63 3 107 171 227 650 908 1157 1136 1049 1103 1175 1267 1613 1448 1377 1539 1454 1469 1513 1165 1038 911 815 781 699 593 374 335 292 277 269 133 321 395 327 401 362 360 343 370
0 2 1 21 23 22 26 27 79 151 158 155 65 617 861 1305 1383 1244 1023 896 1384 1182 1297 1320 1228 1400 1601 1533 1248 903 783 716 694 588 485 329 348 323 339 211 323 487 397 463 608 572 490 387 276
3 0 6 42 6 0 0 0 61 225 182 97 115 979 1384 1142 1210 1033 1412 1382 1218 1081 1364 1250 1620 1418 1401 1104 1055 872 663 476 449 428 533 520 547 533 467 463 343 463 445 627 496 380 336 318 267
0 0 45 18 0 1 24 0 160 199 140 89 298 1399 1188 1792 1701 1421 1342 879 926 935 1321 1144 1076 1080 985 910 762 563 399 378 388 483 461 553 598 820 788 727 596 531 197 116 11 16 51 123 68
0 4 23 6 0 17 36 38 231 136 18 51 630 1408 1214 1673 1476 934 936 787 841 861 789 903 654 644 536 422 407 234 228 288 380 505 618 761 703 467 146 77 22 14 7 11 0 0 0 0 0
0 0 0 2 15 14 46 142 136 23 30 139 906 1404 1583 1669 1278 909 626 543 522 611 581 362 207 181 119 117 138 144 232 384 504 620 766 757 546 185 33 0 0 0 0 0 0 0 0 0 0
0 0 0 4 15 0 0 0 23 0 90 270 948 1315 1390 1243 636 300 123 123 278 364 324 130 30 38 52 79 111 103 70 152 318 351 383 315 139 60 12 0 4 12 9 6 1 0 0 0 0
0 0 0 0 0 0 0 0 0 0 117 178 682 978 1103 547 215 183 4 0 72 207 153 75 102 95 94 84 134 32 38 20 70 250 259 155 60 30 18 22 10 15 2 0 0 0 0 0 0
0 0 0 0 0 0 0 0 0 4 149 132 400 569 426 291 312 296 76 61 72 171 206 71 140 50 24 9 1 5 8 1 17 90 36 10 11 3 0 0 0 0 0 0 0 0 0 0 0
0 0 0 0 0 0 0 0 0 7 161 125 112 205 260 213 194 181 135 90 282 386 272 187 82 44 14 10 19 10 15 10 1 22 10 1 0 0 0 0 0 0 0 0 0 0 0 0 0
0 0 0 0 0 0 0 0 0 0 117 194 125 162 171 175 221 183 111 320 515 374 163 203 89 68 38 12 8 38 0 0 0 0 6 3 0 0 0 0 0 0 0 0 0 0 0 0 0
0 0 0 0 0 0 0 0 0 0 28 176 216 237 217 273 314 284 191 199 245 206 169 197 64 82 2 0 0 0 0 0 8 0 0 0 0 0 0 0 0 0 0 0 0 0 0 0 0
0 0 1 1 0 0 0 0 0 0 0 0 4 142 276 371 356 274 328 460 531 522 512 305 90 11 0 0 0 0 0 0 0 0 0 0 0 0 0 0 0 0 0 0 0 1 0 0 0
0 2 3 9 0 0 0 0 0 1 2 5 21 66 113 211 403 518 590 590 626 503 171 24 0 0 0 0 0 0 0 0 0 0 0 0 0 0 0 0 0 0 2 4 0 0 0 0 0
4 4 0 8 12 4 0 3 3 26 65 102 84 76 90 86 54 16 3 2 2 0 0 0 0 0 0 0 0 0 0 0 0 0 0 0 0 0 0 0 0 0 0 0 0 0 0 0 0
0 0 0 0 1 0 0 0 0 39 79 77 57 0 0 0 0 0 0 0 0 0 0 0 0 0 0 0 0 0 0 0 0 0 0 0 0 0 0 0 0 0 0 0 0 0 0 0 0
0 0 0 0 0 0 0 0 0 0 0 4 0 0 0 0 2 1 2 0 0 0 0 0 0 0 0 0 0 0 0 0 0 0 0 0 0 0 0 0 0 0 0 1 8 4 3 0 0
0 0 2 3 6 0 0 0 0 0 0 0 0 0 0 0 0 1 0 2 0 0 0 0 0 0 0 0 0 0 0 0 0 0 0 0 0 0 0 0 0 0 8 16 5 0 0 0 0
0 0 17 0 0 0 0 0 0 0 0 0 0 0 0 0 0 0 1 0 0 0 0 0 0 0 0 0 0 0 0 0 0 0 0 0 0 0 0 0 0 0 11 13 21 0 0 0 0
0 0 0 0 0 0 0 0 0 0 0 0 0 0 0 0 0 0 0 0 0 0 0 0 0 0 0 0 0 0 0 0 0 0 0 0 0 0 0 0 0 18 26 22 6 0 0 0 0
0 0 0 0 0 0 0 0 0 0 0 0 0 0 0 0 0 0 0 0 0 0 0 0 0 0 2 1 0 0 0 0 0 0 0 0 0 0 0 1 25 16 1 0 0 1 4 0 27
0 0 0 0 0 0 0 0 0 0 0 0 0 0 0 0 0 0 0 0 0 3 8 11 3 1 0 0 0 0 0 0 0 0 0 0 0 0 0 21 7 4 0 0 5 3 0 2 25
0 0 0 0 0 0 0 0 0 0 0 0 0 0 0 0 0 0 0 2 9 19 18 22 18 0 1 0 0 0 0 0 0 0 0 0 0 0 0 2 0 4 1 0 0 0 0 1 0

GFSSGP_con_mucape_009.txt.gz
CAPE
0 0 0 0 0 0 0 16 18 552 647 575 592 665 474 578 762 666 561 808 829 839 528 352 858 1039 962 901 1039 1083 1184 776 657 524 421 303 217 261 237 270 314 23 0 0 0 0 0 0 0
0 0 0 0 0 6 37 29 4 789 493 535 280 129 119 287 752 932 785 932 977 888 475 289 856 1001 1090 1042 973 1026 1018 880 630 472 342 240 202 170 146 121 168 2 0 0 0 0 0 0 0
0 0 0 0 0 1 50 145 776 675 491 358 171 44 32 45 594 883 923 917 1085 937 601 484 850 713 858 767 805 803 971 1111 801 605 324 183 119 62 60 0 0 0 0 0 0 0 0 0 30
0 0 0 0 0 7 0 717 570 455 290 168 137 102 48 3 248 753 1142 1174 951 952 765 466 597 655 862 723 787 889 1239 1057 930 691 300 151 21 0 0 0 0 14 11 0 0 12 27 57 129
0 0 0 0 0 23 0 314 273 395 265 220 247 2 0 4 355 377 852 884 928 578 422 481 379 410 752 809 845 1009 1219 983 837 534 336 109 0 0 0 0 21 27 28 11 15 32 70 107 122
0 0 0 0 33 8 0 358 353 192 51 75 147 57 130 634 427 680 810 521 346 421 467 495 463 636 650 695 936 916 984 868 750 506 288 69 26 42 26 42 67 49 41 73 76 105 171 205 244
0 0 0 34 35 28 12 268 252 198 38 3 90 304 814 729 911 1064 623 58 378 66 599 664 771 710 580 676 674 715 788 790 683 472 284 126 120 114 125 186 223 247 181 190 270 308 359 388 351
0 0 0 16 54 208 90 251 444 309 196 217 7 34 873 968 1533 1180 792 811 675 322 955 1070 1005 1043 1099 952 674 702 699 680 586 405 247 179 216 175 153 118 349 420 420 455 591 577 459 395 407
0 0 4 39 160 246 441 474 39 10 0 13 188 757 1024 1393 1535 1307 1107 1105 961 981 1151 1046 929 907 891 969 835 689 722 635 474 423 257 220 390 272 187 204 345 489 453 461 524 132 72 161 387
0 0 10 56 230 309 174 196 101 26 41 188 792 1251 1668 1529 1157 1315 1199 1151 978 904 836 896 936 855 951 568 542 334 107 99 163 428 361 410 505 347 5 140 394 458 308 324 303 73 173 111 3
0 0 19 9 24 62 23 13 68 23 256 446 1272 1344 1221 1272 1111 1170 1108 708 596 953 906 832 956 823 635 419 183 51 23 171 506 679 547 760 500 660 437 301 340 368 242 183 78 62 49 23 0
0 0 0 0 0 0 2 14 108 3 0 169 890 1285 1132 1506 1374 1240 1057 542 695 892 893 649 539 590 441 149 56 72 444 525 552 815 814 819 598 565 457 400 480 286 218 90 69 83 22 0 0
0 0 0 0 0 0 4 30 9 78 227 641 1186 1252 1054 1335 1009 794 456 429 480 532 498 453 440 421 382 337 511 712 946 934 1065 1088 1085 846 503 301 181 212 137 308 68 57 63 57 0 0 0
0 0 0 1 0 46 185 57 0 200 407 745 1009 771 620 641 432 338 352 325 325 488 532 386 232 383 619 883 805 470 452 518 470 786 1081 778 452 268 139 95 90 48 47 28 1 0 0 0 0
0 0 1 0 4 79 13 2 12 322 460 470 530 428 365 270 210 203 230 262 413 502 409 399 701 802 752 580 340 226 119 84 217 552 920 1064 679 445 265 15 47 60 0 0 0 0 0 0 0
0 0 20 13 8 0 0 3 8 225 491 514 516 540 582 489 301 184 125 147 633 593 466 606 752 667 462 319 0 56 93 76 40 1 21 10 18 2 0 0 0 0 0 0 0 0 0 0 0
0 0 2 12 5 0 0 1 39 130 452 611 760 874 797 626 468 373 237 214 683 842 668 612 755 549 465 138 174 38 1 0 0 0 0 0 0 0 0 0 0 0 0 0 0 0 0 0 0
2 9 5 3 0 0 12 24 70 158 301 612 749 912 784 697 573 536 406 293 615 936 843 817 681 440 546 550 93 0 0 0 0 0 0 0 0 0 0 0 0 0 0 0 1 0 0 1 12
0 0 4 5 0 1 61 27 49 206 220 297 507 733 773 777 840 809 547 623 819 1131 1086 973 736 636 706 348 108 11 0 0 0 0 0 0 0 0 0 0 0 0 0 1 9 18 24 8 1
1 4 24 3 1 129 103 157 94 178 268 400 407 482 601 725 814 784 884 871 1021 1291 1244 1019 826 727 280 76 10 41 16 0 0 0 0 0 0 0 0 0 0 1 0 2 10 25 19 1 0
10 7 34 75 116 117 124 228 239 171 321 491 560 586 612 750 901 1042 1069 1146 1238 1217 1060 924 700 273 23 5 0 0 0 0 0 0 0 0 0 0 0 0 0 0 2 0 10 7 16 5 0
32 83 40 62 153 114 54 135 180 344 297 292 455 632 726 870 1068 1248 1250 1144 1213 1191 984 525 144 3 0 0 0 0 2 2 0 0 0 0 0 0 0 0 0 0 0 1 3 6 12 11 7
195 164 149 159 210 151 163 112 31 422 414 340 379 497 660 864 1115 1254 1398 1370 1115 882 530 46 0 0 0 0 0 0 0 0 0 0 0 0 0 0 0 0 0 0 0 2 11 29 27 21 31
160 198 182 136 169 204 79 11 295 503 424 451 528 644 919 1134 1158 1000 811 710 374 111 2 0 0 0 0 0 0 0 0 0 1 0 1 0 0 0 0 0 0 0 0 10 30 34 30 33 19
168 220 165 192 344 186 104 148 134 99 226 417 541 626 737 699 430 202 163 0 0 0 0 0 0 0 0 0 0 0 0 0 0 0 0 0 0 0 0 0 0 0 2 19 11 21 24 31 22
116 117 188 57 141 127 148 74 87 123 39 178 514 425 416 236 16 0 0 0 0 0 0 0 0 0 0 0 0 0 0 0 0 0 0 0 0 0 0 0 0 8 16 10 20 57 77 66 50
74 101 90 155 148 139 52 39 94 84 54 187 503 309 226 38 0 0 0 0 0 0 0 0 0 0 0 0 0 0 0 0 0 0 0 0 0 0 0 0 7 25 32 36 63 60 77 68 54
41 36 47 13 0 37 74 71 48 165 63 104 446 238 97 2 0 0 0 0 0 0 0 0 0 0 0 0 0 0 2 0 0 0 0 0 0 0 0 0 0 20 54 59 52 56 63 39 53
12 0 0 36 153 113 1 32 2 0 18 67 258 205 93 4 0 0 0 0 0 0 0 0 0 0 0 0 1 21 1 0 0 0 0 0 0 0 0 0 0 8 25 44 58 63 76 50 65
3 43 8 0 0 1 27 2 0 0 0 10 73 141 81 7 0 0 0 0 0 0 0 0 0 0 1 2 18 4 0 0 0 0 0 0 0 0 0 0 8 22 31 28 30 50 45 66 59

GFSSGP_con_mucape_012.txt.gz
CAPE
0 0 0 0 0 0 0 0 0 548 738 521 387 507 638 794 880 544 578 488 316 243 311 349 731 757 791 918 1077 1081 1107 913 698 492 389 344 234 193 293 262 102 39 0 0 0 0 0 0 0
0 0 0 0 0 0 0 3 846 828 634 395 320 307 259 778 1022 929 838 794 528 267 165 318 766 710 846 966 1041 952 1085 748 596 428 283 282 164 90 130 138 110 117 0 0 0 0 0 0 0
0 0 0 0 0 0 0 41 509 743 489 317 144 64 38 497 876 853 1046 806 758 257 163 576 749 512 604 819 800 835 962 773 578 418 213 73 26 1 0 215 200 56 0 0 0 0 19 62 253
0 0 0 0 0 0 0 122 821 592 465 225 122 42 31 15 566 909 898 750 739 623 330 437 362 327 528 584 888 1001 900 686 544 448 295 9 0 0 0 234 183 19 24 19 16 32 99 304 258
0 0 0 0 0 0 53 657 522 243 150 125 79 5 0 232 398 1056 817 776 535 289 171 228 167 370 537 575 1045 953 873 681 543 454 257 89 0 0 32 205 182 37 42 43 56 84 272 348 324
0 0 0 0 0 0 4 394 314 83 103 77 11 21 69 197 498 874 677 612 274 178 192 137 203 331 296 656 799 746 700 620 528 423 217 138 219 232 272 341 340 324 328 398 415 426 439 397 333
0 0 0 0 0 0 0 626 214 146 149 34 210 237 129 306 824 457 229 159 134 327 244 118 256 622 520 481 479 529 571 533 521 407 257 287 323 340 404 477 467 465 495 568 649 602 524 463 390
0 0 0 0 0 28 161 396 176 44 100 135 36 70 200 881 796 290 87 50 52 103 163 185 285 200 674 457 399 419 430 409 404 298 220 239 280 323 360 442 503 485 401 397 468 226 128 231 278
0 0 0 0 14 321 95 177 120 210 11 84 17 19 363 1270 1155 889 733 108 14 65 256 270 404 624 771 572 432 445 501 386 380 230 218 167 173 214 287 355 365 338 134 139 221 60 69 141 183
0 0 0 323 436 333 101 4 27 61 4 391 413 52 618 1125 1144 1150 1155 190 79 160 375 467 625 588 632 348 388 204 152 74 212 218 240 391 595 105 38 313 345 438 178 196 252 203 255 156 0
0 0 4 47 37 95 30 20 147 133 47 36 345 755 1296 1063 973 930 1072 805 453 478 602 668 698 791 636 392 313 88 193 304 679 631 761 717 780 671 523 477 547 385 251 220 157 134 53 17 0
0 0 0 29 0 14 87 161 0 0 0 0 108 819 1144 1111 1007 1046 633 616 664 691 702 710 636 421 227 86 53 150 347 609 639 801 675 793 888 701 480 239 68 64 109 133 131 58 25 2 0
0 0 0 0 0 12 23 12 9 17 0 65 208 776 1094 1104 1022 637 327 492 534 504 371 357 434 433 471 392 691 846 834 914 951 960 928 801 546 303 152 88 91 145 96 35 16 15 0 0 0
0 0 0 0 0 96 2 0 24 37 257 494 426 605 827 868 407 221 277 273 443 320 395 414 312 526 712 918 586 544 532 539 530 884 1031 781 555 312 130 75 17 8 1 17 0 0 0 0 0
0 0 0 0 0 35 21 16 58 244 355 320 221 260 284 355 198 280 254 274 417 405 341 252 400 1075 812 657 499 289 0 115 390 596 753 768 504 222 24 0 0 0 0 0 0 0 0 0 0
0 0 0 0 0 12 2 0 25 246 182 237 143 105 137 130 141 186 209 241 418 308 295 419 698 774 499 238 11 78 289 116 0 2 0 0 0 0 0 0 0 0 0 0 0 0 0 0 0
0 0 0 0 0 0 0 0 5 216 252 235 286 254 267 178 122 129 130 349 389 318 468 759 791 532 125 254 191 289 70 0 0 0 0 0 0 0 0 0 0 0 0 0 0 0 0 0 0
0 0 0 0 0 0 0 0 0 80 136 26 385 428 441 331 196 188 100 367 674 496 508 810 731 624 338 504 78 6 0 0 0 0 0 0 0 0 0 0 0 0 0 0 0 0 0 1 0
0 2 2 6 0 0 26 1 0 13 384 471 509 558 598 590 584 432 321 474 954 832 665 763 697 571 604 321 1 0 0 0 0 0 0 0 0 0 0 0 0 0 0 0 0 0 0 0 0
3 15 3 0 0 0 5 8 3 22 36 182 367 543 555 614 662 742 645 505 906 1010 873 884 688 657 682 182 44 59 0 0 0 0 0 0 0 0 0 0 0 0 0 0 0 0 0 0 0
0 16 16 7 0 0 62 46 4 12 56 99 154 327 517 628 867 886 708 935 1412 1058 1044 988 655 719 127 2 0 0 0 0 0 0 0 0 0 0 0 0 0 0 0 0 0 0 0 0 0
41 51 8 16 37 0 50 96 5 92 19 144 273 333 367 548 793 883 1055 1063 1416 1024 997 798 620 87 0 0 0 0 0 0 0 0 0 0 0 0 0 0 0 0 0 0 0 0 0 0 0
23 21 36 44 73 148 80 69 91 1 151 174 359 515 608 716 814 1062 1149 1175 1152 821 1007 559 205 11 0 0 0 0 0 0 0 0 0 0 0 0 0 0 0 0 0 0 0 7 2 1 0
71 7 85 23 56 301 12 49 27 17 21 219 214 412 598 694 946 1066 1047 938 809 820 458 190 73 0 0 0 0 0 0 0 0 0 0 0 0 0 0 0 0 0 0 0 4 0 0 0 1
9 28 72 78 182 249 72 77 251 44 112 88 119 415 594 872 938 1014 1042 1030 775 430 235 102 4 0 0 0 0 0 0 0 0 0 1 5 0 0 0 0 0 0 0 0 0 0 0 0 0
52 1 168 8 0 52 36 38 18 213 161 98 343 552 854 986 1006 856 681 489 447 213 71 0 0 0 0 0 0 0 0 0 0 1 14 12 0 0 0 0 0 0 0 0 0 0 5 18 19
0 59 40 10 129 245 15 0 1 24 11 88 558 545 670 627 446 285 203 120 0 0 0 0 0 0 0 0 0 0 0 0 0 8 3 0 0 0 0 0 0 0 1 7 8 14 29 4 4
5 0 98 88 10 0 0 18 112 59 21 8 416 442 443 369 155 23 1 0 0 0 0 0 0 0 0 0 0 0 0 0 6 9 0 0 0 0 0 0 0 0 0 24 24 33 28 26 31
0 2 0 0 285 514 324 29 5 0 1 53 125 505 355 266 70 0 0 0 0 0 0 0 0 0 0 0 0 0 1 4 16 0 0 0 0 0 0 0 0 0 0 0 6 14 5 50 16
0 78 0 510 32 552 394 12 0 0 0 0 13 276 279 170 28 0 0 0 0 0 0 0 0 0 0 0 0 2 4 22 10 0 0 0 0 0 0 0 0 0 10 7 3 9 10 27 13

GFSSGP_con_mucape_015.txt.gz
CAPE
0 0 0 0 0 0 0 0 22 712 646 516 722 854 933 1055 1108 492 716 597 267 306 534 575 658 739 842 1009 1096 981 884 570 360 338 331 264 137 79 150 124 104 65 0 0 0 0 0 0 0
0 0 0 0 0 0 0 43 816 704 529 453 421 422 740 950 1070 1034 757 240 155 312 312 424 667 743 868 992 1055 863 639 367 388 335 236 223 114 31 134 235 211 189 0 0 0 0 0 0 7
0 0 0 0 0 0 0 138 791 571 446 313 152 151 354 960 1033 896 809 485 314 145 293 496 580 544 757 1004 999 785 637 445 370 287 203 102 26 35 78 260 213 172 0 0 0 0 1 29 142
0 0 0 0 0 0 0 96 738 504 316 192 154 24 143 681 869 1024 558 440 350 397 408 276 295 345 680 854 840 775 545 378 308 198 173 59 30 67 125 270 230 36 32 30 46 44 90 254 160
0 0 0 0 0 0 21 612 718 553 343 272 149 28 89 886 976 790 458 290 230 136 113 112 172 252 474 753 897 691 511 399 272 190 158 135 113 58 171 339 285 107 102 99 114 152 324 309 234
0 0 0 0 0 14 432 594 645 449 207 235 61 37 244 881 568 482 354 240 11 73 62 110 270 284 303 415 686 543 443 391 227 237 266 226 295 338 394 408 423 356 378 459 441 353 263 271 267
0 0 0 0 0 157 558 382 227 119 67 43 47 317 489 748 423 322 281 194 157 172 33 26 124 71 288 322 398 384 406 310 209 219 293 300 310 396 474 504 521 450 357 300 190 93 86 169 168
0 0 0 0 0 214 388 247 230 155 121 202 145 90 201 323 200 132 102 102 78 33 8 45 147 146 274 293 274 260 223 159 156 179 181 176 242 350 389 384 434 300 119 54 52 12 36 65 105
0 0 0 96 311 98 76 189 77 112 103 52 12 158 553 266 227 35 20 1 7 68 17 87 62 182 243 252 269 237 267 154 135 148 122 110 88 96 191 122 252 147 84 13 25 31 60 78 12
0 0 0 149 342 155 23 17 105 193 144 184 3 319 375 209 117 50 27 9 15 40 12 5 91 315 342 258 166 77 100 39 9 160 170 223 161 69 30 76 184 146 95 70 71 108 128 31 0
0 0 5 68 42 44 16 53 41 71 63 103 22 0 341 596 208 50 43 0 27 162 184 75 304 404 402 173 84 46 100 177 152 201 254 276 171 177 89 107 140 23 55 28 17 2 12 8 0
0 0 0 77 14 23 11 47 45 1 0 97 145 172 479 443 246 63 84 41 77 187 300 283 421 454 257 257 126 71 182 292 289 386 275 323 277 161 34 59 36 9 3 4 0 10 24 18 0
0 6 0 12 10 50 19 4 18 15 82 223 407 587 559 543 419 158 214 274 425 492 485 401 384 384 184 187 262 412 499 514 634 540 378 354 192 1 6 1 0 1 0 0 0 1 5 0 0
0 9 0 0 0 18 15 50 202 122 192 250 352 632 859 619 452 368 486 544 566 496 376 349 102 165 283 259 307 313 454 533 458 587 431 244 76 46 9 6 0 0 0 0 0 0 0 0 0
5 0 0 0 20 4 2 13 339 495 418 343 432 595 868 349 270 308 376 291 116 164 132 98 129 327 284 244 149 93 47 203 464 552 435 438 291 67 1 0 0 0 0 0 0 0 0 0 0
0 0 0 0 0 1 5 207 511 471 413 190 503 589 565 143 128 171 260 197 187 143 50 77 447 355 317 152 37 0 10 39 11 0 0 0 0 0 0 0 0 0 0 0 0 0 0 0 0
0 0 4 0 0 5 22 294 363 316 358 203 87 143 162 108 103 81 220 217 236 111 123 419 537 418 229 6 33 23 0 0 0 0 0 0 0 0 0 0 0 0 0 0 0 0 0 0 0
0 0 3 0 0 3 0 46 306 224 276 152 164 104 115 96 83 65 308 265 224 80 392 575 469 169 63 26 13 0 0 0 0 0 0 0 0 0 0 0 0 0 0 0 0 0 0 0 0
0 0 3 2 0 0 0 12 133 232 182 93 267 397 127 114 78 24 270 327 347 324 573 507 263 111 88 137 5 0 0 0 0 0 0 0 0 0 0 0 0 0 0 0 0 0 0 0 0
2 2 1 0 0 0 2 0 24 187 163 221 158 133 255 205 172 146 334 486 528 433 580 546 405 219 118 209 0 0 0 0 0 0 0 0 0 0 0 0 0 0 0 0 0 0 0 0 0
0 13 10 1 0 0 11 13 0 0 91 393 334 179 347 391 421 364 275 595 661 666 527 514 420 220 283 261 0 0 0 0 0 0 0 0 0 0 0 0 0 0 0 0 0 0 0 0 0
1 1 9 4 0 2 2 23 40 12 4 50 383 396 500 516 496 489 333 687 651 661 708 632 556 442 371 19 0 0 0 0 0 0 0 0 0 0 0 0 0 0 0 0 0 0 0 0 0
0 0 0 9 1 2 8 2 49 3 0 6 88 160 454 532 657 684 549 760 824 857 831 724 585 416 98 10 0 0 0 0 0 0 0 0 0 0 0 0 0 0 0 0 0 0 0 0 0
34 0 1 5 0 14 38 1 3 1 5 0 80 143 331 623 682 704 794 983 952 961 955 722 569 407 85 0 0 0 0 0 0 0 0 0 0 0 0 0 0 0 0 0 0 0 0 0 1
34 45 26 3 1 7 26 9 0 7 0 0 25 164 347 621 676 810 890 896 806 723 721 608 536 415 163 2 0 0 0 0 0 0 0 0 0 0 0 0 0 0 0 0 0 0 0 0 0
3 2 2 0 0 17 5 16 11 0 7 6 14 142 53 688 858 989 1003 916 787 674 691 370 345 228 232 0 0 0 0 0 0 0 0 0 3 3 0 0 0 0 0 0 0 0 0 0 0
6 17 11 21 1 2 27 19 80 30 23 0 10 133 164 673 761 935 930 728 675 723 565 364 166 174 148 0 0 0 0 0 0 0 0 1 0 0 0 0 0 0 0 0 0 0 4 9 0
22 5 41 10 3 1 0 3 34 24 28 77 150 308 612 836 834 774 816 814 690 697 556 465 221 64 2 0 0 0 0 0 0 0 2 10 16 0 0 0 0 0 0 0 1 5 3 5 12
0 0 0 0 0 0 40 4 0 0 0 105 312 394 639 717 657 481 367 401 474 472 326 0 0 0 0 0 0 0 0 0 0 2 10 20 0 0 0 0 0 0 0 0 0 0 0 1 1
0 11 46 3 0 5 1 2 0 0 0 0 41 401 517 478 387 246 72 29 3 0 0 0 0 0 0 0 0 0 1 9 6 13 30 1 1 0 0 0 0 0 0 0 0 0 0 0 0

GFSSGP_con_mucape_018.txt.gz
CAPE
0 0 0 0 0 0 0 0 0 107 605 847 981 1069 1057 1039 947 219 623 604 579 657 644 543 553 693 896 1075 971 774 613 377 229 189 223 154 55 85 161 159 181 191 16 0 0 0 0 0 0
0 0 0 0 0 0 0 1 376 598 506 469 451 718 941 1223 1089 1083 833 651 445 535 508 394 575 755 1055 1012 888 550 367 253 245 174 97 130 75 95 274 239 243 278 42 6 0 0 0 0 63
0 0 0 0 0 0 0 400 669 512 534 484 310 270 825 1207 1051 919 717 568 247 252 276 416 593 859 1074 909 686 492 471 368 317 221 105 109 130 108 199 304 330 249 46 26 10 4 0 82 169
0 0 0 0 0 0 0 3 626 469 468 315 198 445 980 1055 1077 1032 662 507 235 241 323 412 536 960 899 838 652 537 395 288 238 192 208 217 145 164 345 358 329 92 52 29 27 23 53 184 205
0 0 0 0 0 0 0 208 490 345 299 249 162 286 774 1174 1023 915 572 408 248 241 154 157 297 397 436 632 632 494 350 261 195 156 263 293 287 230 398 369 353 234 103 106 93 103 249 182 305
0 0 0 0 0 27 443 573 618 333 220 134 185 521 868 986 760 583 280 132 127 95 113 145 223 179 231 358 489 375 329 237 160 180 304 344 333 345 423 446 452 434 378 286 182 123 127 112 177
0 0 0 0 0 82 427 287 331 159 81 58 423 491 801 1121 820 383 232 16 39 78 86 67 13 55 184 226 294 340 269 175 198 223 267 295 312 359 425 454 459 346 210 54 20 31 41 64 95
0 0 0 6 224 235 313 173 145 45 85 252 315 319 706 765 689 460 140 60 89 81 35 0 21 1 105 254 272 212 208 149 182 224 221 210 265 350 385 326 279 185 4 0 3 29 19 46 150
0 0 0 0 162 150 61 65 131 161 225 338 331 464 544 923 274 115 72 103 82 104 31 2 17 132 136 251 192 201 182 108 124 169 148 56 45 49 66 32 60 39 3 0 8 33 77 0 15
0 0 0 1 200 80 10 0 160 164 164 457 612 633 271 101 82 67 70 26 13 1 2 17 17 145 171 176 123 50 59 24 33 67 101 74 33 16 16 55 25 23 35 47 12 41 0 0 0
0 0 0 43 73 22 0 19 108 281 129 101 456 229 57 12 36 35 34 28 0 0 0 0 53 98 149 84 32 15 6 104 124 150 179 97 26 65 55 61 13 0 0 0 0 0 0 0 0
0 0 0 10 56 11 5 10 76 105 78 45 402 93 188 18 26 15 36 22 31 34 8 58 113 247 190 36 3 28 34 132 260 220 175 164 139 80 11 0 8 8 1 0 1 0 0 0 5
0 0 0 0 26 33 22 53 15 3 94 62 509 465 284 9 7 24 54 65 111 184 123 39 184 306 156 18 18 73 243 322 366 286 214 184 116 3 0 0 0 0 0 3 0 0 0 0 0
0 0 0 5 21 85 75 60 64 199 197 270 518 457 299 106 84 47 50 203 239 322 330 246 284 347 124 74 76 180 334 435 422 398 324 263 25 0 0 0 0 0 0 0 0 0 0 0 0
0 4 0 0 49 68 56 83 81 234 587 644 746 663 498 297 189 154 181 390 481 419 314 374 314 317 148 175 390 491 484 369 353 271 165 85 98 8 0 0 0 0 0 0 0 0 0 0 0
0 0 0 51 15 10 15 237 534 324 373 465 638 684 585 545 399 447 583 609 554 445 285 123 177 206 229 287 282 299 201 244 331 269 186 83 8 0 0 0 0 0 0 0 0 0 0 0 0
0 0 0 0 0 0 2 483 739 456 462 518 561 657 574 600 509 635 656 608 616 458 333 303 306 284 244 226 146 15 30 4 0 0 0 0 0 0 0 0 0 0 0 0 0 0 0 0 0
0 0 1 0 0 4 33 455 775 553 427 582 462 531 403 518 465 558 548 372 499 286 193 354 324 265 225 135 33 13 0 0 0 0 0 0 0 0 0 0 0 0 0 0 0 0 0 0 0
0 0 1 12 2 1 26 302 616 517 345 237 321 443 215 294 389 552 332 330 365 179 282 482 497 414 319 24 22 24 0 0 0 0 0 0 0 0 0 0 0 0 0 0 0 0 0 0 0
0 0 0 0 0 0 0 271 345 376 319 213 174 185 172 195 256 446 425 414 397 309 365 648 644 500 217 10 7 8 0 0 0 0 0 0 0 0 0 0 0 0 0 0 0 0 0 0 0
0 0 0 0 0 0 6 158 306 222 247 275 221 238 163 130 173 370 458 456 388 420 562 707 542 248 123 99 48 20 0 0 0 0 0 0 0 0 0 0 0 0 0 0 0 0 0 0 0
0 0 0 19 6 0 0 0 1 169 93 50 195 279 182 208 109 148 335 402 438 536 722 671 407 220 113 100 184 95 0 0 0 0 0 0 0 0 0 0 0 0 0 0 0 0 0 0 0
0 0 0 12 3 0 3 2 0 3 0 0 66 181 285 290 253 226 224 374 449 616 738 648 529 418 145 243 358 71 1 0 0 0 0 0 0 0 0 0 0 0 0 0 0 0 0 0 0
5 0 0 0 0 1 4 0 0 11 1 0 0 27 272 360 337 243 290 379 461 658 718 607 684 588 391 393 283 29 13 2 3 0 0 0 0 0 0 0 0 0 0 0 0 0 0 0 0
17 23 1 0 1 0 0 0 0 0 0 0 0 0 104 430 427 363 363 478 631 679 638 722 793 662 479 319 219 18 19 20 0 0 0 0 0 0 0 0 1 0 0 0 0 0 0 0 0
12 0 0 0 0 1 3 0 7 6 0 0 5 3 216 252 477 526 641 720 766 683 640 834 768 718 532 398 277 131 66 30 0 0 0 0 0 0 0 0 1 0 0 0 0 0 0 0 0
5 2 1 3 5 0 1 11 0 13 1 6 14 2 89 572 660 784 831 898 927 949 885 740 688 658 458 529 266 168 86 26 0 0 0 0 0 0 0 0 1 0 0 0 0 0 0 0 4
0 0 13 32 0 0 0 0 0 83 41 52 30 45 23 535 682 755 871 945 958 919 826 803 709 594 414 334 210 124 97 37 0 0 0 0 0 0 0 8 0 0 0 0 0 0 0 0 0
5 1 1 1 16 1 0 0 0 7 14 7 25 47 76 398 815 911 1025 1070 1025 851 698 666 683 558 399 386 191 91 37 1 0 0 0 0 0 1 1 2 0 0 0 0 0 0 0 0 0
14 16 14 2 0 0 0 1 0 0 0 8 3 32 188 335 707 846 924 942 891 853 765 719 782 628 353 210 41 50 54 59 35 5 1 3 6 2 0 0 0 0 0 0 0 0 0 0 0

GFSSGP_con_mucape_021.txt.gz
CAPE
0 0 0 0 0 0 0 0 0 12 693 994 1038 1034 1009 958 650 283 717 585 732 678 669 604 620 831 966 939 753 611 453 332 133 106 112 80 121 175 184 195 198 143 70 0 0 0 0 0 60
0 0 0 0 0 0 0 0 144 161 757 823 692 1003 1012 1327 1084 1038 823 782 786 768 632 439 670 920 989 808 664 508 310 165 189 98 69 115 98 155 259 278 232 200 97 1 0 0 0 0 85
0 0 0 0 0 0 0 633 783 719 535 398 281 792 1028 1176 1294 902 847 812 724 639 509 568 794 877 976 706 497 410 401 332 226 151 128 117 148 112 192 325 288 219 22 25 11 7 10 81 62
0 0 0 0 0 0 0 1 558 522 525 353 372 756 1087 1199 960 992 997 812 566 516 438 488 859 906 876 712 621 545 410 261 194 238 309 274 269 134 297 330 279 59 32 41 48 25 167 171 38
0 0 0 0 0 0 11 358 191 404 322 205 150 820 899 1002 1261 1051 864 705 468 392 310 358 669 672 582 725 604 474 382 281 263 359 414 462 456 296 408 323 306 226 79 64 48 153 245 170 23
0 0 0 0 0 0 464 514 535 397 198 218 652 579 856 1013 828 684 530 431 243 86 26 128 291 257 224 467 475 359 339 298 340 411 447 486 462 433 425 409 404 370 307 256 160 86 186 253 67
0 0 0 0 111 81 439 329 537 275 171 186 480 650 677 742 809 476 454 283 165 20 38 48 91 30 27 239 270 224 267 279 366 398 404 400 368 365 379 404 372 298 179 114 73 90 144 277 59
0 0 0 30 101 138 373 291 241 143 129 438 443 464 460 677 468 467 297 131 17 33 45 61 49 30 133 173 166 154 180 229 287 351 307 279 308 351 322 289 251 109 41 61 79 150 48 297 3
0 0 0 0 184 103 182 263 256 252 335 503 437 538 443 583 576 269 79 47 18 15 19 10 8 0 47 120 172 199 199 207 243 233 225 131 99 65 15 87 33 10 1 22 94 18 0 0 0
0 0 0 2 36 123 139 77 218 272 499 763 523 573 813 524 220 271 66 29 75 16 29 8 1 2 168 310 185 82 74 83 55 40 23 10 6 21 0 40 33 30 17 17 0 0 0 0 0
0 0 0 3 85 202 56 36 248 275 298 277 516 382 629 230 101 101 110 103 87 69 26 12 27 95 211 181 76 11 11 3 12 71 96 51 32 8 7 0 0 0 0 0 0 0 0 0 0
0 0 0 1 1 105 56 59 175 240 148 310 378 229 136 75 24 102 100 103 18 38 28 12 40 171 231 104 26 8 3 87 159 182 110 54 61 50 35 44 14 0 0 0 0 0 0 0 0
1 0 0 0 43 70 81 117 70 0 288 204 114 91 73 23 37 77 73 52 0 20 51 15 33 259 236 58 0 0 152 238 269 184 163 188 132 76 19 0 0 0 0 0 0 0 0 0 0
0 0 0 0 16 51 53 99 90 90 461 277 280 90 25 33 27 38 55 40 90 75 63 125 177 316 264 13 18 73 208 379 313 296 237 226 115 13 0 0 0 0 0 0 0 0 0 0 0
0 0 1 2 7 81 95 38 166 125 556 547 678 159 112 65 39 25 48 61 122 192 171 159 224 359 256 0 12 218 360 405 387 322 305 271 96 0 0 0 0 0 0 0 0 0 0 0 0
1 11 42 32 79 125 100 186 198 518 426 641 629 413 250 163 63 72 41 174 279 330 311 270 280 373 219 44 117 177 483 503 452 306 152 65 44 0 0 0 0 0 0 0 0 0 0 0 0
0 0 3 43 12 42 72 357 235 614 614 698 738 616 436 262 129 100 104 386 487 456 373 360 354 333 239 205 433 471 498 284 268 227 207 115 0 0 0 0 0 0 0 0 0 0 0 0 0
0 0 0 5 0 11 31 386 382 267 453 654 614 664 600 315 247 244 276 551 532 478 363 384 468 341 210 281 398 319 79 29 30 9 0 0 0 0 0 0 0 0 0 0 0 0 0 0 0
0 0 0 0 0 0 0 268 463 396 372 535 666 733 611 554 452 477 490 643 613 422 456 311 241 280 298 284 316 226 17 0 0 0 0 0 0 0 0 0 0 0 0 0 0 0 0 0 0
1 0 0 2 6 0 0 112 576 436 459 642 474 721 732 655 629 626 662 653 603 565 462 345 334 356 360 313 226 106 18 5 0 0 0 0 0 0 0 0 0 0 0 0 0 0 0 0 0
0 0 0 0 0 0 0 11 542 511 466 474 353 519 566 479 597 525 604 578 550 527 372 334 427 402 304 268 182 18 23 16 0 0 0 0 0 0 0 0 0 0 0 0 0 0 0 0 0
0 0 0 0 0 0 0 1 271 364 376 401 259 372 367 356 341 462 565 559 366 469 297 281 468 466 433 407 250 17 16 27 0 0 0 0 0 0 0 0 0 0 0 0 2 0 0 0 0
0 0 0 0 0 3 0 0 0 129 174 332 302 188 176 232 294 328 449 506 379 411 254 219 470 651 651 434 154 44 45 45 8 0 0 0 0 0 0 0 0 0 0 1 0 0 0 0 0
0 0 0 0 0 0 0 0 0 0 16 163 215 237 206 184 201 214 309 402 440 485 314 315 658 773 584 225 217 72 102 111 63 22 7 5 3 0 0 0 0 0 0 0 0 0 0 0 0
0 0 0 0 0 0 0 0 0 0 0 0 0 0 29 81 197 267 220 319 435 512 335 392 711 623 385 310 435 338 163 357 113 54 46 36 11 0 0 0 0 0 0 4 0 0 0 0 0
0 1 0 0 0 0 0 0 0 0 1 0 0 0 0 0 85 320 328 311 244 388 422 571 693 619 504 414 458 326 309 242 142 68 38 31 24 0 3 1 0 0 1 14 0 0 0 0 0
0 0 0 0 0 0 0 2 0 0 0 0 0 0 3 1 62 304 394 416 346 305 362 540 687 652 598 537 487 404 186 132 41 26 47 51 21 4 4 0 0 3 0 3 0 0 0 0 0
4 0 0 0 0 0 0 0 0 25 26 10 16 13 13 222 228 185 336 438 470 472 587 672 609 617 681 614 417 189 92 42 51 42 70 44 4 0 3 1 2 2 0 10 0 0 0 0 0
11 0 0 0 0 0 0 0 0 13 0 0 0 0 0 202 373 353 405 550 545 656 716 780 837 781 685 400 282 230 125 92 64 74 27 30 8 2 20 14 11 3 6 0 0 0 0 0 0
0 2 0 0 0 0 0 0 0 0 0 0 0 0 0 0 368 565 657 702 723 839 898 949 912 823 621 434 316 195 70 59 55 43 46 61 28 23 20 12 10 15 2 0 0 0 0 0 0

GFSSGP_con_mucape_027.txt.gz
CAPE
0 0 0 0 0 0 0 0 0 20 229 1155 1190 865 936 784 664 516 821 878 1014 859 565 741 871 833 751 693 593 450 366 327 265 290 256 244 294 258 263 254 256 258 325 377 512 449 392 456 433
0 0 0 0 0 0 0 0 130 512 560 526 733 1171 1129 893 879 841 1010 1102 1050 851 563 493 846 711 728 645 532 428 358 276 288 340 320 382 389 368 308 290 278 267 272 259 324 504 579 525 413
0 0 0 0 0 0 0 26 226 615 623 490 769 898 1065 1200 1071 1052 1152 1224 1104 889 616 672 873 757 808 600 414 314 280 258 322 363 412 475 430 431 414 373 327 333 251 65 112 186 232 220 283
0 0 0 0 0 0 0 0 39 188 441 648 885 1004 1166 1050 1348 1245 1203 1198 1070 964 770 678 651 649 799 648 468 309 273 233 277 346 450 527 461 478 500 420 379 355 228 0 36 89 96 169 141
0 0 0 0 0 0 0 299 711 556 511 817 748 945 1020 1188 1264 1152 1056 983 918 813 799 587 489 473 611 824 514 321 272 306 346 424 473 526 533 523 513 414 383 349 298 126 42 119 139 139 163
0 0 0 0 0 12 8 561 703 605 742 866 952 860 1109 1221 1240 1143 1094 1023 741 562 428 333 317 94 143 471 304 318 403 466 451 487 575 682 615 514 446 350 278 299 382 360 142 159 191 178 93
0 0 0 7 30 201 419 636 653 576 586 814 826 878 944 1074 1004 1049 1178 1052 850 586 351 225 221 103 21 235 278 356 512 502 558 564 590 579 471 433 392 330 263 261 325 418 186 60 171 119 0
0 0 2 70 27 34 473 577 693 533 519 859 657 815 965 804 950 812 1027 971 813 394 300 163 89 26 12 108 309 402 387 431 461 495 399 311 359 346 337 260 243 228 216 359 109 37 20 0 0
0 0 26 34 35 49 329 539 584 795 837 791 884 781 749 758 482 500 469 572 410 254 198 79 31 11 4 138 334 407 410 402 367 308 273 146 129 91 38 71 128 191 73 78 51 0 0 0 0
0 19 30 51 73 106 163 388 572 874 690 821 959 859 888 765 464 523 631 218 191 108 133 45 34 3 2 56 133 232 268 201 176 152 136 96 117 75 42 85 154 38 0 0 0 0 0 0 0
0 12 39 38 57 32 108 187 438 831 703 653 989 1007 893 325 379 328 153 10 23 39 17 22 46 12 5 0 46 122 144 121 134 116 107 92 117 19 14 0 0 0 0 0 0 0 0 0 0
0 2 12 12 40 60 208 290 506 372 312 560 1024 877 654 519 298 87 22 28 52 4 8 5 11 2 2 8 165 72 56 71 99 41 97 153 18 0 0 0 0 0 0 0 0 0 0 0 0
3 1 0 8 14 81 206 236 322 569 782 735 699 774 314 211 61 57 24 18 6 8 7 12 0 1 104 165 111 38 32 37 52 73 134 75 0 0 9 15 2 0 0 0 0 0 0 0 0
0 1 0 0 86 198 249 217 291 528 666 607 622 493 415 323 258 105 67 24 3 3 15 5 29 108 234 210 39 4 26 43 62 87 85 18 34 41 37 16 0 0 0 0 0 0 0 0 0
4 0 0 0 119 237 216 189 428 562 1062 365 263 266 299 73 156 148 119 43 0 2 7 6 14 204 388 202 6 4 1 57 114 110 113 90 55 77 35 1 0 0 0 0 0 0 0 0 0
1 1 29 8 123 168 145 207 494 961 444 344 346 340 279 35 30 174 148 143 35 13 20 22 10 131 427 225 0 2 57 260 261 222 175 158 138 92 30 0 0 0 0 0 0 0 0 0 0
7 0 26 15 56 144 128 181 310 615 474 295 365 346 186 76 100 105 161 109 68 124 99 67 92 192 360 203 1 36 199 322 348 262 224 205 210 187 17 0 0 0 0 0 0 0 0 0 0
0 1 1 77 70 80 145 221 347 614 687 592 459 345 249 141 153 129 125 88 76 148 187 143 133 217 270 185 7 25 122 309 388 317 304 339 225 36 21 0 0 0 0 0 0 0 0 0 0
0 0 0 3 34 36 46 154 281 579 644 680 595 688 381 206 148 161 174 194 186 254 256 248 235 246 286 118 45 94 214 413 411 351 396 136 40 46 8 0 0 0 0 0 0 0 0 0 0
8 3 0 0 0 0 0 22 282 438 543 560 661 632 808 486 363 333 207 225 295 367 376 354 320 266 315 149 95 187 162 329 298 364 89 97 71 15 0 0 0 0 0 0 0 0 0 0 0
2 8 4 0 0 1 3 0 164 266 470 555 547 606 600 820 746 526 430 310 349 449 482 434 360 312 303 304 258 228 365 374 368 140 12 6 2 0 0 0 0 0 0 0 0 0 0 0 0
3 0 0 0 0 0 0 0 0 286 315 302 403 432 544 516 624 728 522 438 391 422 455 418 337 304 406 387 459 342 365 335 78 24 0 6 0 0 0 0 0 0 0 0 0 0 0 0 2
1 0 0 0 0 0 0 0 0 8 310 355 338 368 391 475 481 658 698 623 502 440 421 538 460 374 505 510 509 285 260 271 113 76 31 12 12 2 0 0 0 0 15 36 40 4 0 7 3
0 0 0 0 0 0 0 0 0 0 159 331 373 354 410 437 516 491 589 695 666 519 478 572 589 452 480 249 301 245 261 291 182 153 68 26 31 31 1 9 19 56 17 37 11 3 8 6 0
0 1 0 0 0 0 0 0 3 0 0 1 81 196 282 441 466 589 541 505 632 621 630 567 635 558 582 454 262 178 282 346 291 206 176 88 49 72 45 46 48 42 45 51 13 3 3 0 0
0 1 1 0 0 0 0 0 0 0 0 0 0 0 1 10 167 403 466 454 572 605 646 716 661 630 620 622 439 372 385 317 194 81 99 142 73 52 86 81 57 56 43 9 8 1 0 0 0
0 0 0 0 0 0 0 0 0 0 0 0 0 0 0 0 0 14 111 346 438 477 480 654 714 698 611 647 550 390 374 283 149 91 77 133 90 110 55 47 49 22 0 4 0 1 9 1 0
0 0 3 2 0 0 0 0 0 0 0 0 0 0 0 1 0 0 3 5 214 299 317 330 537 710 669 545 594 474 271 283 202 104 108 128 101 100 60 58 19 3 7 0 0 0 1 3 0
2 1 1 0 0 0 0 0 0 0 0 0 0 0 0 0 1 3 54 130 193 212 265 271 350 401 447 514 563 557 272 165 167 131 130 160 132 84 20 40 4 20 6 1 0 2 5 0 0
0 0 0 23 0 0 0 0 0 0 0 0 0 0 0 0 0 22 67 147 166 125 148 209 229 273 315 367 456 422 293 294 281 152 183 119 66 20 34 47 23 30 0 0 0 4 0 0 0

GFSSGP_con_mucape_030.txt.gz
CAPE
0 0 0 0 0 0 0 0 0 13 77 1367 1632 694 175 1115 748 769 1342 1342 1245 689 328 782 908 977 936 852 669 491 356 290 332 226 230 321 373 369 365 344 480 765 921 486 301 369 196 57 82
0 0 0 0 0 0 0 0 25 421 667 977 992 1542 1185 956 988 1115 1409 1296 1178 713 443 245 956 922 866 709 574 456 374 397 312 318 416 444 462 481 426 406 459 872 1031 766 449 376 184 131 295
0 0 0 0 0 0 2 0 0 648 945 956 1210 777 209 689 943 1272 1533 1554 1282 1040 540 687 872 842 851 676 542 352 323 379 360 507 579 567 555 561 537 471 362 618 780 540 521 276 142 256 298
0 0 0 0 0 0 0 0 45 293 609 740 1163 1122 702 447 946 1669 1778 1450 1277 1174 800 678 749 852 830 688 486 353 358 333 418 538 590 632 657 665 612 541 400 365 419 221 222 34 100 211 183
0 0 0 0 0 0 0 9 974 947 473 947 1109 1163 1180 1298 1345 1252 1607 1496 1322 1184 1062 975 697 817 741 649 485 422 417 353 464 499 494 619 730 743 729 530 451 296 345 245 151 88 193 221 133
0 0 0 0 0 1 5 489 1143 890 1048 1249 1336 1376 1323 1389 1486 1316 1350 1300 1165 1061 877 593 565 397 438 437 384 385 388 465 535 519 572 661 651 574 515 487 533 410 263 332 278 246 185 77 0
0 0 0 4 44 348 914 1080 1049 960 1114 1328 1328 1256 1270 1013 1430 1374 1227 1124 712 536 454 415 365 67 19 206 300 419 495 527 587 628 591 480 442 361 380 363 411 425 261 205 282 254 66 0 0
0 0 6 18 24 83 441 829 979 811 1069 1230 1264 1192 1164 1021 1099 891 1135 1092 796 550 399 247 175 4 3 117 345 430 444 488 505 500 344 335 291 332 325 302 351 473 276 159 169 71 0 0 0
0 0 29 6 0 1 154 722 1111 1024 1075 1306 1308 1476 908 1371 920 596 849 816 675 411 269 173 70 7 1 104 261 452 572 441 339 342 280 145 44 28 59 183 293 339 160 43 1 0 0 0 0
0 0 6 41 16 52 80 504 1035 1192 1209 1330 1242 791 827 781 573 684 445 452 384 302 230 100 41 12 0 85 143 349 384 228 261 226 138 107 194 62 34 153 123 29 2 0 0 0 0 0 0
3 4 16 11 18 14 0 200 731 1078 884 1081 1024 607 643 549 401 455 182 109 127 53 67 36 6 0 0 51 140 227 197 253 266 197 122 154 206 139 165 132 4 0 0 0 0 0 0 0 0
0 4 8 20 14 9 439 473 601 806 1052 1319 1068 544 447 300 374 70 24 21 52 53 46 47 27 3 1 0 49 84 104 125 151 147 162 227 148 166 93 50 3 0 0 0 0 0 0 0 0
0 0 0 0 0 284 477 564 765 1152 1192 1399 900 745 379 280 115 93 34 24 15 27 16 10 13 10 4 3 11 79 151 123 62 87 112 97 46 115 36 12 3 0 0 0 0 0 0 0 0
1 0 0 0 58 476 548 596 581 914 1173 989 854 638 308 35 147 66 56 38 15 15 4 9 5 4 21 77 122 57 80 30 69 221 354 292 84 65 0 28 3 0 0 0 0 0 0 0 0
0 12 25 3 398 395 345 533 937 1001 1026 840 665 642 440 411 387 186 83 77 32 39 2 0 41 88 20 150 254 10 75 39 130 380 516 368 89 54 29 18 0 0 0 0 0 0 0 0 0
0 0 66 78 253 344 308 512 1089 908 858 688 637 623 572 588 458 307 88 29 27 60 22 35 71 149 176 267 206 0 53 117 290 511 592 323 103 96 67 7 0 0 0 0 0 0 0 0 0
9 28 51 23 124 396 453 521 945 898 866 531 481 423 255 230 268 314 413 27 12 19 12 44 117 214 441 587 187 10 142 425 702 742 597 295 150 136 99 0 0 0 0 0 0 0 0 0 0
31 28 30 51 174 227 357 502 853 1030 912 511 467 399 264 164 190 326 397 477 173 131 166 200 299 447 687 619 228 42 329 646 853 778 541 220 189 215 105 0 0 0 0 0 0 0 0 0 0
6 8 23 23 39 136 159 201 712 1052 1032 1035 857 538 357 229 184 213 373 448 369 434 303 289 303 425 749 647 171 92 439 663 825 765 456 312 203 203 10 0 0 0 0 0 0 0 0 0 0
18 14 28 7 0 11 74 87 477 1041 1171 1149 1095 1167 761 497 313 320 324 314 268 423 532 524 517 605 766 501 156 176 375 623 819 575 355 337 322 68 9 7 0 0 0 0 0 0 0 0 0
34 29 11 5 0 0 33 41 210 606 1051 1044 1071 1045 1032 665 601 549 511 464 390 366 476 544 630 710 711 479 250 437 555 298 473 299 254 253 157 25 32 1 0 0 0 0 0 0 0 9 2
27 7 11 2 2 32 9 28 69 240 702 912 866 953 1056 893 745 816 1030 969 735 658 594 647 615 723 805 749 522 411 459 525 432 216 149 120 48 16 3 0 0 0 0 0 0 9 10 11 0
21 0 12 31 15 25 19 24 84 95 379 516 747 889 1018 976 843 947 963 1139 1199 1001 885 1035 984 902 840 847 650 582 688 746 683 117 48 48 21 19 21 25 0 0 0 0 6 11 1 0 0
0 8 15 32 48 43 44 41 60 47 71 84 279 513 770 886 977 946 1039 1198 1248 1303 1164 1096 1213 1099 920 944 862 844 861 888 388 45 67 57 63 54 44 32 28 0 0 1 17 26 16 0 0
0 15 80 83 86 66 2 40 59 41 18 47 62 130 528 747 889 1094 1154 1246 1401 1437 1441 1366 1341 1195 1091 1071 978 1001 976 791 218 83 112 78 71 82 44 27 49 23 6 19 32 29 13 1 0
0 16 49 33 58 42 0 28 66 36 30 31 50 37 14 344 740 965 1100 1248 1350 1542 1592 1563 1397 1400 1253 1128 958 683 483 262 174 139 212 159 101 41 63 58 0 25 39 18 19 0 0 0 0
2 9 18 64 14 21 23 3 5 0 0 101 141 98 161 132 109 397 714 1107 1248 1460 1651 1671 1480 1268 1380 1231 1075 871 532 246 197 116 145 101 64 41 38 61 40 48 73 38 32 0 5 0 0
24 11 32 81 47 1 18 0 1 0 0 0 0 9 60 171 136 72 215 444 711 1098 1400 1497 1559 1343 1333 1352 1145 1036 699 504 419 186 173 120 66 59 46 54 58 44 0 1 1 3 3 4 0
24 27 7 81 70 43 10 16 0 0 0 0 0 0 11 151 283 346 194 253 353 659 1027 1138 1241 1114 1234 1458 1269 1187 874 514 439 139 84 131 102 76 75 57 23 0 0 4 8 9 5 7 5
43 53 101 150 79 26 81 10 0 3 0 0 0 0 0 67 164 437 513 445 466 646 790 879 1021 1099 1227 1268 1191 1098 448 482 477 269 139 112 96 49 72 61 28 13 8 2 7 6 0 0 0

GFSSGP_con_mucape_033.txt.gz
CAPE
0 0 0 0 0 0 0 21 41 41 41 581 756 404 116 635 769 558 1841 1708 1144 867 1040 1374 1354 1418 1321 1131 879 642 475 509 540 442 442 465 450 539 575 701 737 772 773 477 122 0 0 21 68
0 0 0 0 0 13 57 27 0 30 429 919 1143 1576 1003 929 1085 1163 1511 1465 1089 755 996 1434 1235 1197 1094 906 724 565 578 570 498 536 576 544 606 599 764 1100 1140 945 937 493 137 60 53 91 147
0 0 0 7 8 7 34 31 17 23 738 932 1055 1292 830 752 598 804 1537 1686 1001 577 746 1297 1036 1003 977 793 638 547 638 467 525 646 720 705 630 602 702 1065 1165 1136 1079 444 135 102 91 137 223
0 0 0 0 1 20 0 0 0 149 367 712 995 1139 600 95 14 56 724 1413 1084 693 631 882 899 907 890 794 639 634 460 470 623 691 761 768 673 661 525 647 919 1147 974 180 140 67 48 212 199
0 0 0 12 1 0 0 0 28 370 465 675 719 1051 1355 612 338 451 376 980 442 805 1174 1048 870 896 910 778 694 614 500 641 702 699 714 744 722 696 531 416 571 657 556 263 111 52 93 132 55
0 0 6 65 12 0 4 113 456 740 792 988 905 1471 1617 910 1151 947 1424 1082 587 1076 925 816 961 836 689 591 577 500 571 672 690 730 837 903 753 638 618 418 450 542 395 348 286 213 106 0 0
0 3 29 9 55 128 482 775 840 1007 964 910 938 965 1369 985 1097 1037 1072 799 685 660 612 615 363 443 344 277 316 389 529 658 717 754 640 460 397 411 413 341 296 355 348 350 239 114 13 0 0
0 0 28 31 40 31 244 601 776 781 1114 1146 1396 1326 1471 694 946 1012 790 620 454 472 482 368 453 82 384 328 358 433 520 611 572 439 353 330 340 382 367 348 294 298 363 310 94 9 0 0 0
0 1 26 32 18 8 16 331 1035 1110 935 1236 1674 1553 898 604 822 567 641 651 594 474 425 409 303 31 78 184 427 562 610 424 373 334 237 146 121 108 151 324 360 249 196 130 25 0 0 0 0
0 19 20 0 4 3 68 322 727 857 1143 1127 708 1014 741 713 515 361 491 501 263 316 268 230 156 36 3 0 17 68 77 143 220 137 221 140 270 299 133 223 206 94 7 0 0 0 0 0 0
6 5 8 33 0 0 2 215 412 638 118 13 800 543 768 750 544 599 362 242 241 270 273 174 198 134 7 2 0 84 167 243 301 373 311 361 371 283 277 97 9 0 0 0 0 0 0 0 0
0 4 0 3 0 85 463 34 0 867 521 393 732 661 493 455 464 381 311 289 142 185 44 55 21 2 3 3 29 121 105 186 249 265 311 457 401 488 442 219 47 13 0 0 0 0 0 0 0
0 1 0 0 0 328 471 677 732 1186 1094 1218 693 528 581 386 239 1 25 42 84 71 39 35 17 6 4 3 5 63 103 139 163 292 306 286 370 445 272 207 62 2 0 0 0 0 0 0 0
5 0 0 0 5 243 391 635 720 1144 1281 994 962 677 209 125 61 60 10 10 31 30 42 18 29 22 12 1 1 59 185 96 167 248 252 208 212 418 216 161 14 1 0 0 0 0 0 0 0
0 0 0 0 35 86 130 231 790 1240 1165 814 670 483 9 150 60 114 80 3 28 14 26 17 24 15 3 7 0 33 61 140 177 167 599 370 173 314 232 146 42 0 0 0 0 0 0 0 0
0 0 15 73 109 157 80 37 1101 1166 833 610 616 268 400 393 243 109 106 73 23 29 6 0 0 11 16 49 88 141 126 123 107 302 604 586 402 330 243 142 42 0 0 0 0 0 0 0 0
21 26 23 80 8 257 169 17 909 978 629 422 399 416 387 477 417 102 60 39 29 0 0 18 73 13 73 242 214 120 181 194 237 748 909 686 475 284 261 152 32 0 0 0 0 0 0 0 0
20 37 41 38 36 60 195 219 886 897 716 614 371 128 116 153 158 224 47 75 86 76 30 86 183 158 149 356 344 109 15 126 358 712 777 765 504 274 260 130 0 0 0 0 0 0 0 0 0
20 25 51 32 35 31 151 111 365 859 795 583 515 390 140 81 100 224 328 116 151 120 67 55 110 193 377 402 285 49 15 163 551 784 845 697 464 254 197 79 8 0 0 0 0 0 0 0 0
8 35 51 39 0 1 32 92 87 692 857 788 617 510 443 124 104 187 352 391 295 267 283 220 189 301 379 258 258 30 64 163 547 1029 793 708 577 226 144 109 0 0 0 0 0 0 0 0 0
17 53 45 44 17 0 4 74 60 197 645 908 709 583 357 337 244 228 233 432 459 451 397 400 397 434 548 427 280 39 40 360 482 690 778 755 534 244 95 63 0 1 0 0 0 0 0 0 0
31 10 7 0 8 30 7 55 35 82 336 708 841 666 454 332 394 336 323 299 419 456 585 535 504 485 532 531 333 107 228 294 561 691 702 602 538 290 77 13 3 0 0 0 0 0 0 0 3
32 8 41 62 79 72 19 0 3 1 94 289 572 767 625 486 412 469 506 470 420 571 564 728 609 627 649 728 640 463 438 477 538 691 730 561 597 227 48 7 11 7 17 0 0 0 0 0 10
16 1 38 68 71 136 19 43 1 26 37 58 150 427 629 529 546 453 571 764 811 766 1002 1040 710 639 715 861 942 1264 886 768 769 1171 703 573 259 35 44 30 30 27 34 34 1 0 0 0 0
4 28 92 103 214 150 66 11 37 3 43 17 3 150 378 677 589 487 506 698 881 1227 1301 1179 951 869 887 1042 1104 1288 1028 1117 1088 960 644 129 21 23 35 36 52 26 12 21 3 0 0 0 17
2 21 67 33 138 231 77 15 34 68 39 1 0 0 20 454 669 701 613 631 825 1039 1449 1525 1300 1219 1128 1503 1348 1467 1116 1179 1466 1034 534 55 28 30 42 0 4 41 40 17 4 1 0 2 0
27 57 4 65 77 155 162 46 33 36 0 0 39 71 137 110 364 695 712 885 999 1106 1621 2127 1647 1459 1418 1476 1280 1553 1308 1272 1403 1061 542 121 38 40 51 82 9 2 24 35 8 0 0 0 0
3 44 66 94 118 130 109 132 65 0 0 0 0 39 45 191 303 258 473 841 1045 1244 1528 2318 1945 1813 1684 1741 1524 1551 1555 1255 1130 781 264 184 100 51 6 3 13 21 35 21 5 0 0 0 3
11 30 26 58 156 173 170 185 47 14 3 0 0 0 0 59 345 500 354 416 675 1122 1412 1753 2038 2033 1959 1747 1813 1888 1505 1158 948 541 366 322 148 63 36 48 37 42 65 24 14 3 1 0 0
28 34 62 207 150 225 360 261 14 2 32 6 0 0 0 80 221 588 633 524 523 719 1037 1442 1718 1791 1877 1777 1726 1707 1173 979 872 514 283 367 299 116 49 49 49 53 64 57 3 0 1 0 4

GFSSGP_con_mucape_036.txt.gz
CAPE
0 0 0 0 0 0 0 0 0 0 7 339 491 235 88 831 484 377 840 2 195 1248 1808 1686 1450 1543 1458 1169 929 746 711 772 660 538 539 622 687 747 800 751 772 829 306 0 0 0 0 0 0
0 0 0 0 0 0 0 0 32 5 349 325 141 521 138 592 563 1164 1431 1235 1218 1440 1754 1696 1369 1315 1233 1015 794 754 826 795 686 712 728 799 867 1022 976 897 834 739 405 0 0 0 0 0 44
0 0 0 0 0 0 1 0 0 0 0 248 320 1040 771 352 287 705 754 937 960 1215 1501 1465 1212 1126 1081 874 743 750 756 688 738 780 917 884 1110 1360 1268 992 950 821 484 68 0 0 0 7 52
0 0 0 0 0 0 5 0 0 0 24 72 406 531 379 162 94 73 79 451 412 476 1221 1097 1033 931 899 827 892 801 677 720 744 811 869 863 1151 1376 1305 1126 1068 830 447 83 0 0 0 60 11
0 0 0 0 0 1 0 0 0 0 44 168 277 531 253 1333 843 684 239 204 76 20 939 974 974 782 874 976 928 785 836 817 855 878 812 784 834 976 1062 1129 945 491 419 126 12 0 5 13 0
0 0 0 4 12 108 98 123 9 57 185 184 376 124 742 881 879 921 728 360 71 227 523 785 879 775 719 800 770 766 820 862 907 894 916 933 685 627 798 777 566 448 370 306 211 145 14 0 0
0 0 0 2 48 60 6 0 89 440 376 222 80 2 616 850 1232 827 694 333 5 1 167 323 418 568 498 487 566 620 692 807 883 863 709 605 461 394 558 651 516 441 340 240 175 66 0 0 0
0 0 0 17 25 33 39 18 62 382 421 233 51 113 753 453 719 860 586 471 348 16 91 87 75 238 298 365 475 541 611 570 418 397 332 298 338 350 348 389 419 391 282 172 32 0 0 0 0
0 0 1 8 0 0 0 50 48 34 211 191 378 590 536 639 627 692 586 590 477 250 192 79 119 59 150 187 335 361 483 349 284 247 234 113 89 58 174 291 394 371 221 93 0 0 0 0 0
0 0 2 0 0 0 0 1 261 227 140 32 42 694 805 573 521 514 330 341 384 213 274 224 112 60 85 33 145 169 206 170 100 64 136 149 192 170 253 253 272 229 133 30 0 0 0 0 0
0 0 0 0 0 0 0 27 135 493 15 0 0 337 398 585 303 221 276 232 319 293 249 105 152 23 17 69 0 28 72 173 203 226 205 270 217 209 198 88 38 3 1 0 0 0 0 0 0
0 0 0 0 0 0 166 199 75 687 27 193 422 401 418 343 156 251 202 171 132 143 172 141 76 118 2 7 2 0 23 139 299 252 361 415 355 299 149 76 51 0 0 0 0 0 0 0 0
0 0 2 0 0 4 22 144 784 990 953 685 560 667 464 227 28 5 37 12 27 16 60 84 83 61 48 8 11 1 46 128 170 333 371 403 336 394 235 167 66 0 8 0 0 0 0 0 0
0 0 0 0 0 24 46 208 107 918 862 832 682 470 150 19 1 0 4 2 3 21 24 55 14 8 7 14 45 16 73 73 135 284 330 359 389 365 334 313 216 89 0 0 0 0 0 0 0
0 0 0 0 0 27 18 0 44 725 568 451 460 88 9 18 7 0 0 0 15 6 0 10 10 30 4 4 5 21 17 3 58 220 296 321 162 231 351 153 166 91 3 1 0 0 0 0 0
0 0 0 6 14 7 2 0 5 344 584 391 0 4 0 1 27 4 3 10 8 8 15 16 0 11 0 0 1 3 5 87 154 160 370 365 321 360 480 285 150 57 0 0 0 0 0 0 0
0 0 1 13 26 113 16 5 12 346 612 378 13 41 185 122 0 36 0 0 0 0 0 0 0 0 2 1 0 4 56 211 214 158 569 555 551 379 348 283 158 39 0 0 0 0 0 0 0
1 3 15 51 29 55 61 12 31 305 454 326 83 162 97 142 23 0 0 0 0 0 0 0 0 0 0 7 20 4 25 81 54 129 467 423 442 402 343 380 129 21 0 0 0 0 0 0 0
0 1 15 13 20 19 92 188 453 339 518 413 139 6 12 28 81 35 6 1 0 0 0 0 0 0 18 15 7 109 0 2 11 331 483 494 490 338 328 288 77 26 0 0 0 0 0 0 0
0 0 3 15 0 0 0 273 256 290 589 204 330 114 4 1 58 74 84 38 6 0 0 0 3 5 8 18 122 103 0 0 21 472 521 397 333 274 295 246 84 21 0 0 0 0 0 0 0
0 0 0 29 3 0 0 0 173 327 458 407 262 379 179 1 59 115 130 81 108 32 7 52 116 95 67 118 181 153 10 3 2 565 652 565 476 447 185 142 85 30 6 0 0 0 0 0 0
0 0 1 38 12 1 6 7 14 204 225 433 401 388 216 152 38 130 158 275 173 205 130 89 41 45 98 173 89 142 2 0 56 533 585 588 646 493 258 152 115 44 14 3 0 0 0 0 0
0 0 6 31 4 35 25 15 7 3 9 191 555 544 451 255 211 73 125 283 401 388 346 278 263 244 270 345 368 284 37 3 35 512 558 646 573 508 292 199 58 28 21 32 35 23 4 0 0
1 2 13 27 26 56 45 37 21 0 2 51 247 535 525 361 271 279 176 201 374 405 517 588 459 442 376 449 411 494 145 191 346 493 577 521 380 463 369 136 50 19 32 28 11 11 0 0 0
4 15 29 13 46 95 61 46 62 10 0 0 165 45 91 471 406 310 363 286 285 372 495 643 642 586 603 670 759 500 626 434 484 665 680 539 454 469 384 138 42 31 27 10 2 0 3 1 2
1 2 51 0 115 90 12 75 35 1 1 0 8 107 81 505 518 517 310 496 546 501 586 581 622 622 584 677 838 864 649 828 869 745 648 507 363 264 133 36 11 36 0 0 5 24 30 17 0
21 2 7 49 124 57 0 105 35 30 0 0 0 0 32 33 576 546 513 449 752 905 932 954 895 762 738 762 764 743 1080 844 789 476 507 544 320 249 118 31 41 19 22 32 34 19 33 14 7
0 1 76 75 93 26 20 123 66 15 10 0 0 1 30 163 221 392 597 661 686 784 1243 1380 1116 972 1008 1017 1053 1015 881 854 699 548 711 599 432 257 228 57 43 58 53 36 32 38 8 25 0
1 0 7 84 123 158 101 77 45 11 12 7 0 0 2 50 411 355 353 370 739 879 843 1129 1256 1378 1308 1288 1257 1051 787 704 329 689 758 537 365 278 213 182 133 90 51 59 47 24 15 0 2
1 25 10 66 76 160 365 113 17 0 1 41 6 12 0 39 189 465 540 448 508 706 1183 1688 1670 1683 1798 1735 1260 988 1108 1105 924 798 683 582 580 196 124 88 102 67 51 59 29 56 32 6 2

GFSSGP_con_mucape_039.txt.gz
CAPE
0 0 0 0 0 0 0 0 0 9 199 357 520 281 504 1049 1136 450 794 204 41 12 31 1273 1456 1578 1378 1040 806 748 766 629 632 761 782 865 909 851 957 455 254 234 123 0 0 0 0 0 0
0 0 0 0 0 0 0 0 0 1 434 298 317 334 582 605 837 1098 1224 382 18 0 271 970 1392 1493 1260 877 804 779 756 718 833 883 925 986 1011 986 1019 394 287 285 128 0 0 0 0 0 10
0 0 0 0 0 0 0 0 0 4 2 214 950 858 922 552 468 523 646 990 340 568 931 1193 1193 1276 1031 824 816 690 708 779 887 962 1141 1141 1157 1186 1024 498 414 402 153 0 0 0 0 0 14
0 0 0 0 0 0 0 31 14 0 2 369 487 368 318 280 317 196 332 869 824 734 905 907 958 1000 982 896 877 762 757 760 849 996 1350 1476 1457 1314 1031 633 608 415 85 0 0 0 0 0 0
0 0 0 0 0 0 12 11 81 186 198 340 624 354 143 877 765 746 399 400 645 666 735 593 769 674 887 1068 959 893 772 818 857 1121 1421 1533 1472 1394 1130 671 562 298 143 6 0 0 0 0 0
0 0 0 0 0 40 25 0 0 183 236 60 26 188 685 691 814 819 642 245 276 242 124 37 399 684 755 762 763 947 917 837 828 911 1126 1391 1405 1328 942 623 485 321 247 131 31 0 0 0 0
0 0 0 0 0 17 18 0 53 219 154 68 3 19 70 437 751 896 979 96 268 406 389 309 232 477 232 231 528 746 791 810 851 726 701 740 834 857 702 608 492 336 237 125 20 0 0 0 0
0 0 0 0 0 58 23 10 35 228 130 126 16 136 117 260 622 588 570 236 164 171 111 185 123 147 214 284 522 616 605 455 339 324 229 237 474 630 510 400 342 242 184 86 0 0 0 0 0
0 0 0 0 0 0 0 4 95 156 107 28 72 347 191 340 597 563 519 430 220 69 87 107 105 82 124 131 368 500 456 229 178 136 56 32 87 152 212 325 308 227 112 34 0 0 0 0 0
0 0 0 0 0 0 0 6 248 208 31 0 128 287 427 273 730 551 542 373 200 87 54 46 25 14 18 50 148 262 124 48 13 5 9 10 62 92 205 278 258 186 97 37 12 0 0 0 0
0 0 0 0 0 0 76 210 427 228 39 0 26 240 394 350 249 397 458 379 311 230 146 74 16 21 0 34 5 76 73 14 23 46 46 88 105 74 87 124 89 51 11 0 0 0 0 0 0
0 0 0 0 0 0 3 153 347 367 121 21 206 388 231 250 133 181 435 405 559 121 106 105 10 55 25 1 1 20 22 28 53 89 110 104 99 61 47 13 0 2 4 0 0 0 0 0 0
0 0 0 0 0 0 135 741 650 603 464 350 291 360 264 208 110 73 93 261 196 113 24 2 4 3 23 9 0 13 15 68 107 154 169 174 117 68 44 12 0 5 0 0 0 0 0 0 0
0 0 0 0 0 1 10 38 333 640 495 426 379 213 90 46 13 25 22 6 146 24 18 7 15 16 15 5 9 0 26 52 33 153 162 201 194 100 50 80 54 1 0 0 0 0 0 0 0
0 0 0 0 0 13 7 0 35 464 598 386 172 16 1 1 9 1 10 3 22 21 26 7 3 8 11 5 9 0 28 16 24 86 170 144 183 181 200 177 102 26 0 0 0 0 0 0 0
0 0 0 0 20 7 14 16 2 273 405 296 33 0 0 11 1 0 0 0 2 6 2 0 13 9 7 4 1 5 0 0 3 9 64 113 134 153 159 112 75 3 0 0 0 0 0 0 0
0 0 0 0 9 0 2 0 1 14 495 92 16 0 0 1 13 0 0 0 0 0 0 2 1 9 1 6 4 0 5 0 2 0 1 91 179 114 163 94 76 0 0 0 0 0 0 0 0
0 0 0 6 12 27 6 0 2 6 326 164 32 7 0 0 0 0 0 0 0 0 0 0 0 1 3 6 7 10 0 0 0 21 91 161 180 202 156 138 93 12 0 0 0 0 0 0 0
0 0 0 3 4 23 41 7 17 4 286 222 38 35 93 0 0 0 0 0 0 0 0 0 0 0 0 0 0 0 0 0 6 7 202 246 200 351 258 155 167 35 0 0 0 0 0 0 0
0 0 0 0 11 14 76 84 24 5 285 181 41 38 119 9 33 0 0 0 0 0 0 0 0 0 0 0 0 0 0 9 0 0 61 229 258 292 270 156 116 68 19 1 0 0 0 0 0
0 0 0 0 4 11 1 90 86 56 13 298 126 48 50 45 44 1 0 0 0 0 0 0 0 0 0 0 0 0 2 22 0 0 39 194 270 219 128 181 147 92 48 2 0 0 0 0 0
0 0 0 0 4 0 4 2 132 26 171 273 84 144 99 66 16 4 0 0 0 0 0 0 0 0 0 0 0 0 0 0 0 0 130 198 237 104 71 206 152 160 57 10 16 16 22 11 7
0 0 2 0 0 0 0 29 24 37 210 247 130 227 170 73 45 23 22 14 0 0 0 0 0 0 0 0 0 0 0 0 0 0 185 220 180 243 283 156 98 93 50 30 35 5 1 8 4
0 0 0 0 0 0 0 25 17 73 102 167 211 264 261 148 133 98 25 16 0 16 11 0 0 0 0 0 0 12 17 12 1 0 272 269 307 340 359 232 191 119 65 51 32 15 0 0 2
0 0 0 0 0 0 28 42 36 25 19 26 308 319 317 233 146 142 82 57 37 41 47 19 0 0 0 3 0 19 21 84 98 19 82 445 488 394 345 359 222 151 114 64 51 20 0 0 2
0 0 0 0 0 0 8 0 15 11 2 1 289 337 312 323 255 214 135 110 116 109 88 77 63 46 22 55 78 51 59 144 153 59 191 355 270 333 318 311 279 146 133 82 46 40 0 37 35
0 0 0 0 56 24 0 5 6 6 0 0 2 167 177 78 295 218 150 115 123 181 182 203 215 185 133 193 175 185 152 106 211 135 274 212 241 145 137 238 232 206 177 75 50 36 31 61 54
0 0 0 0 0 0 4 5 34 1 0 7 0 0 18 56 264 309 213 180 177 162 201 212 257 348 317 215 287 331 392 321 302 482 263 88 28 115 128 192 129 108 76 72 58 62 69 94 29
0 0 0 2 0 0 0 0 5 16 2 0 0 0 2 61 169 262 332 280 230 217 235 224 276 253 381 381 170 294 389 454 495 411 243 93 76 194 247 188 138 172 131 107 104 91 40 33 26
0 0 0 0 0 4 11 0 8 10 3 13 0 0 0 142 228 268 209 277 280 381 326 301 292 352 192 118 336 331 259 316 330 446 186 43 162 465 327 223 218 244 89 113 150 31 51 47 14

GFSSGP_con_mucape_042.txt.gz
CAPE
0 0 0 0 0 0 0 0 0 0 0 220 298 338 730 1000 778 395 750 493 554 766 1105 877 678 1252 1130 906 833 722 701 956 1099 997 972 1177 794 650 546 397 208 56 6 0 3 3 5 20 36
0 0 0 0 0 0 0 0 0 0 99 233 512 598 688 543 1061 1104 961 336 731 606 657 450 531 967 1027 886 769 658 887 1026 1121 1084 1106 1265 815 684 537 360 177 41 0 0 0 0 0 0 6
0 0 0 0 0 0 0 0 2 83 315 558 838 677 666 564 516 570 792 684 241 110 92 461 594 584 939 943 704 662 846 939 1013 1085 1300 1409 884 794 623 361 214 86 2 0 0 0 0 0 0
0 0 0 0 0 0 0 0 55 173 148 317 439 336 437 1054 733 825 534 756 504 386 501 816 614 747 843 675 795 840 889 809 906 1049 1375 1455 971 885 676 366 243 73 0 0 0 0 0 1 26
0 0 0 0 0 0 0 0 89 101 179 147 296 285 483 843 774 803 453 907 988 809 707 708 481 347 521 337 730 973 890 912 1010 1142 1265 1302 1050 965 706 334 154 40 0 0 0 0 0 0 27
0 0 0 0 0 0 0 0 88 77 52 14 25 207 606 708 616 956 763 376 938 633 695 680 748 548 321 205 795 758 847 1100 1223 1198 1253 1331 1079 852 638 330 207 131 52 0 0 0 0 0 0
0 0 0 0 0 0 1 3 232 210 167 36 1 18 9 224 296 823 606 157 397 528 529 427 197 79 245 14 454 529 700 825 1050 1136 1183 1173 699 679 555 399 256 79 34 0 0 0 0 0 0
0 0 0 0 0 0 8 3 94 79 71 59 0 40 49 208 443 616 428 368 373 450 342 161 390 70 38 61 424 455 457 501 653 725 716 519 536 543 416 209 163 72 27 7 0 0 0 0 0
0 0 0 0 0 0 1 25 144 26 0 82 220 362 174 152 358 759 440 376 343 366 240 119 23 34 11 28 315 296 324 250 393 476 485 224 129 99 23 84 141 63 29 2 0 0 0 0 0
0 0 0 0 0 0 10 47 89 0 0 118 125 279 188 353 450 351 349 289 412 145 65 6 0 64 60 70 95 78 37 71 155 179 215 104 28 35 28 63 64 39 37 20 0 0 0 0 0
0 0 0 0 0 1 264 223 168 0 0 0 10 244 205 166 247 336 266 139 96 100 55 33 0 20 25 29 80 48 2 0 1 12 61 26 29 51 45 33 6 0 11 0 0 0 0 0 0
0 0 0 0 0 0 24 186 232 63 6 0 31 186 63 64 57 169 286 253 255 116 63 56 32 7 0 0 5 0 0 0 0 14 30 6 12 30 23 6 0 5 0 0 0 0 0 0 0
0 0 0 0 0 212 299 355 497 352 194 78 80 180 73 24 16 126 283 139 137 64 35 71 39 18 14 13 1 0 0 3 24 25 6 9 10 12 2 0 0 3 6 0 0 0 0 0 0
0 0 0 0 0 119 336 454 293 349 170 157 192 237 73 44 1 3 49 50 70 76 51 32 71 42 41 36 17 0 18 30 51 23 22 33 15 3 5 0 0 0 2 0 0 0 0 0 0
0 0 0 0 0 0 0 6 92 407 302 224 139 55 5 7 0 1 8 15 10 8 23 47 5 35 29 59 11 8 1 45 41 65 49 51 35 29 6 15 12 0 0 0 0 0 0 0 0
0 0 0 0 0 0 0 0 142 409 368 139 10 5 0 0 0 1 1 2 23 19 24 18 26 7 1 11 4 2 0 6 12 44 48 114 118 111 119 112 50 17 0 0 0 0 0 0 0
0 0 0 0 0 0 0 0 8 471 391 207 19 0 0 0 0 0 0 0 0 1 8 8 22 6 13 8 4 3 1 1 9 18 22 72 88 122 159 110 92 43 14 0 0 0 0 0 0
0 0 0 0 2 6 6 1 5 162 309 43 18 0 0 0 0 0 0 0 0 0 0 0 0 13 9 8 3 5 4 8 2 0 2 13 35 44 48 33 27 1 0 0 0 0 0 0 0
0 0 0 0 0 27 5 2 0 0 290 165 73 22 0 0 0 0 0 0 0 0 0 0 0 0 0 8 1 0 0 0 2 0 0 21 0 83 57 24 46 40 0 0 0 0 0 0 0
0 0 0 0 12 24 13 4 1 0 78 266 207 71 21 4 0 0 0 0 0 0 0 0 0 0 0 0 0 1 0 0 0 0 0 6 95 48 134 94 66 39 5 1 0 0 0 0 0
0 0 0 0 0 11 3 15 15 0 0 168 343 201 41 60 6 9 0 0 0 0 0 0 0 0 0 0 0 0 0 0 0 0 0 0 66 131 122 210 108 57 62 26 13 19 5 10 4
0 0 0 0 0 0 0 0 0 5 3 9 301 254 91 107 30 9 0 0 0 0 0 0 0 0 0 0 0 0 0 0 0 0 0 0 13 86 129 159 151 103 92 28 47 45 21 27 8
0 0 0 0 0 0 0 0 0 15 3 32 246 264 147 140 95 18 0 0 0 0 0 0 0 0 0 0 0 0 0 0 0 0 0 0 0 21 162 215 82 148 136 114 62 44 22 23 2
0 0 0 0 0 0 0 0 0 17 17 5 211 285 197 112 169 83 25 2 0 0 0 0 0 0 0 0 0 0 0 0 0 3 0 0 0 21 114 180 33 104 143 103 72 37 25 28 13
0 0 0 0 0 0 0 0 0 0 0 5 103 241 227 196 248 166 96 91 13 0 0 0 0 0 0 0 0 0 0 0 0 1 13 0 9 58 101 158 89 138 112 106 85 63 42 35 25
0 0 0 0 0 0 0 0 0 0 0 1 31 167 234 227 279 252 161 145 84 34 0 0 0 0 0 0 0 0 0 0 0 1 31 53 36 75 123 126 199 199 128 115 91 107 75 54 37
0 0 0 0 0 0 0 0 0 0 0 0 0 29 217 207 277 318 251 236 177 97 85 25 4 0 0 0 0 0 0 2 34 79 84 113 49 116 228 270 165 201 93 101 97 106 89 76 55
0 0 0 0 0 0 0 0 0 0 0 0 0 103 181 152 203 301 280 290 273 259 170 137 100 46 23 0 0 1 37 40 40 61 86 119 62 122 221 157 82 63 112 104 105 83 73 61 58
0 0 0 0 0 0 0 0 0 0 0 2 0 1 197 180 187 214 246 321 323 307 282 212 186 152 150 117 69 70 16 54 113 114 139 136 116 83 98 53 104 95 72 115 95 94 67 60 43
0 0 0 0 0 0 0 0 0 0 0 0 0 0 1 26 42 67 109 264 330 361 330 296 346 296 287 230 140 78 113 130 161 147 124 191 7 40 0 55 92 155 172 167 206 245 145 57 63

GFSSGP_con_mucape_045.txt.gz
CAPE
0 0 0 0 0 0 0 0 0 0 0 110 277 627 561 531 694 277 745 857 1291 1205 1199 1005 1072 1094 765 887 1017 1133 1269 1253 1372 1127 980 959 727 633 400 255 368 476 437 107 64 29 24 8 59
0 0 0 0 0 0 0 0 0 25 28 204 368 499 381 546 951 989 830 815 1312 1260 946 848 1045 917 664 543 733 1166 1367 1295 1460 1203 990 841 676 493 269 197 350 533 440 100 58 30 21 7 16
0 0 0 0 0 0 0 0 0 53 167 235 468 378 500 465 728 899 880 693 893 1272 912 582 906 645 378 200 444 1165 1194 1176 1450 1154 1039 812 666 489 239 120 269 503 218 13 0 0 0 26 183
0 0 0 0 0 0 0 0 0 8 14 71 192 141 540 712 494 841 1122 1030 1077 1210 930 712 794 562 387 184 219 1089 1139 1026 1311 984 930 814 607 445 242 80 226 458 45 0 0 0 2 21 14
0 0 0 0 0 0 0 0 9 24 27 32 127 75 383 864 794 865 771 1081 945 664 392 551 638 444 402 236 253 1089 1008 1023 1072 925 814 675 541 427 166 97 136 50 0 0 0 200 55 9 0
0 0 0 0 0 0 0 0 16 41 18 5 5 170 608 626 758 1114 779 955 1009 854 490 375 504 436 228 126 116 853 984 984 1020 903 799 778 497 306 150 88 13 0 0 0 0 22 0 0 0
0 0 0 0 0 0 0 0 8 93 81 24 0 0 145 210 255 910 774 425 1115 851 710 451 331 258 108 36 28 327 908 855 840 853 783 696 324 181 143 15 0 0 0 0 0 0 0 0 0
0 0 0 0 0 0 0 0 15 64 16 49 0 1 21 158 440 625 487 427 709 670 604 482 320 123 14 30 95 363 757 885 1002 936 614 372 249 137 24 0 0 0 0 0 0 0 6 12 0
0 0 0 0 0 0 0 0 37 16 0 89 188 315 214 115 188 323 425 357 409 502 339 306 234 121 13 5 2 226 724 850 871 567 364 111 10 0 0 0 0 0 0 0 0 0 11 4 0
0 0 0 0 0 0 0 0 43 0 0 56 67 162 291 278 157 415 413 240 299 375 279 128 61 26 7 6 6 120 452 321 325 256 112 0 0 0 0 0 0 0 0 0 0 0 0 0 0
0 0 0 0 0 0 2 1 35 0 0 0 0 135 136 275 273 385 379 428 185 121 85 96 0 9 5 6 66 92 93 103 209 199 27 0 0 0 0 0 0 0 0 0 0 0 0 0 0
0 0 0 0 0 0 2 0 15 0 2 0 0 78 19 0 21 137 156 80 291 111 45 11 19 6 9 11 20 24 87 190 268 126 0 0 0 0 0 0 0 0 0 0 0 0 0 0 0
0 0 0 0 0 0 29 112 191 57 12 9 9 78 4 20 12 5 13 81 120 99 88 19 60 37 0 20 0 0 69 147 165 79 0 0 0 0 0 0 0 0 0 0 0 0 0 0 0
0 0 0 0 0 139 88 100 189 130 41 3 58 57 8 25 0 0 6 9 28 32 45 69 19 18 7 6 2 20 53 54 51 2 0 0 0 0 0 0 2 3 0 0 0 0 0 0 0
0 0 0 0 0 31 39 13 100 100 79 43 92 162 8 52 0 2 7 4 40 7 13 14 50 34 28 10 11 0 0 11 0 0 0 0 0 0 0 4 8 8 3 0 0 0 0 0 0
0 0 0 0 0 0 0 0 0 147 120 76 49 14 0 4 0 1 3 12 22 7 16 32 34 35 18 38 12 10 36 40 45 8 0 0 0 3 5 6 6 5 1 0 0 0 0 0 0
0 0 0 0 0 0 0 0 0 211 182 53 0 0 0 0 0 0 0 0 4 10 11 14 24 11 27 31 17 11 42 51 61 40 24 12 9 24 65 88 73 19 13 2 0 0 0 0 0
0 0 0 0 0 0 0 0 0 250 236 61 0 0 0 0 0 0 0 4 5 6 19 6 15 25 18 1 5 6 69 65 76 73 88 79 67 96 120 83 111 85 40 7 0 0 0 0 0
0 0 0 0 0 0 0 0 3 64 307 186 5 0 0 0 0 0 0 0 0 0 6 26 0 6 3 3 4 1 14 13 17 11 23 65 73 96 101 93 111 97 58 5 0 0 0 0 0
0 0 0 0 0 0 0 7 3 1 163 214 23 14 0 0 0 0 0 0 0 0 0 0 10 0 8 8 7 3 7 8 12 0 0 1 15 18 35 55 48 60 22 0 0 0 3 0 0
0 0 0 0 0 0 8 9 7 0 5 87 180 116 46 10 0 0 0 0 0 0 0 0 0 4 0 1 0 3 1 3 2 1 0 0 0 8 48 51 79 63 43 51 10 17 19 3 11
0 0 0 0 0 0 0 0 0 1 0 1 59 173 211 113 32 8 0 0 0 0 0 0 0 0 0 0 0 0 0 0 0 0 0 0 0 6 78 121 133 128 191 70 54 33 38 49 40
0 0 0 0 0 0 0 0 0 0 0 0 0 84 231 273 143 62 8 0 0 0 0 0 0 0 0 0 0 0 0 0 0 0 0 0 0 0 11 130 189 164 223 149 95 78 69 51 41
0 0 0 0 0 0 0 0 0 0 0 0 0 28 36 202 215 133 111 5 0 0 0 0 0 0 0 0 0 0 0 0 0 0 0 0 0 0 0 0 28 160 203 194 168 133 87 45 54
0 0 0 0 0 0 0 0 0 0 0 0 0 13 46 183 258 171 141 110 24 0 0 0 0 0 0 0 0 0 0 0 0 0 0 0 0 0 0 0 10 71 171 116 65 97 87 66 53
0 0 0 0 0 0 0 0 0 0 0 0 0 0 37 178 252 239 143 185 85 43 0 0 0 0 0 0 0 0 0 0 0 0 0 0 0 0 0 1 1 10 83 79 63 88 82 52 46
0 0 0 0 0 0 0 0 0 0 0 0 0 0 13 122 204 176 183 171 212 122 103 8 0 0 0 0 0 0 0 0 0 0 0 0 0 0 1 11 56 38 50 12 45 84 1 37 72
0 0 0 0 0 0 0 0 0 0 0 0 0 0 9 87 147 165 210 215 260 255 209 129 82 43 0 0 0 0 0 0 0 0 1 0 3 15 46 65 85 79 94 94 144 115 99 87 96
0 0 0 0 0 0 0 0 0 0 0 0 0 0 0 7 43 101 198 256 281 315 276 249 216 200 181 157 45 18 0 0 0 0 0 6 6 33 74 87 89 75 67 90 129 76 78 77 102
0 0 0 0 0 0 0 0 0 0 0 0 0 0 0 0 45 126 195 247 269 324 305 288 310 286 254 204 128 113 45 1 0 1 1 10 24 41 39 59 57 0 0 44 75 57 22 74 98

GFSSGP_con_mucape_048.txt.gz
CAPE
0 0 0 0 0 0 0 0 0 0 0 148 291 243 259 332 256 95 688 987 1157 1261 1232 906 1383 1377 1263 1070 1200 1166 1203 1394 1369 1134 1023 979 889 625 482 520 501 487 419 89 97 71 36 17 11
0 0 0 0 0 0 0 0 0 0 20 68 131 252 266 369 734 640 871 996 1476 1446 1053 999 1380 1355 1314 1311 1422 1406 1626 1588 1286 1173 1033 943 778 581 674 531 454 516 492 154 178 220 102 26 56
0 0 0 0 0 0 0 0 0 0 6 61 246 212 332 247 746 776 747 992 1681 1335 1087 1239 1166 946 1073 1192 1396 1462 1607 1375 1204 1183 1013 904 711 754 729 538 469 555 441 149 171 157 73 50 44
0 0 0 0 0 0 0 0 0 0 0 0 69 28 304 432 402 472 728 855 2054 1319 1168 1266 932 911 798 858 1244 1250 1447 1223 1111 1019 951 775 601 746 678 427 453 358 39 0 0 32 166 14 1
0 0 0 0 0 0 0 0 0 0 12 2 82 29 103 765 594 671 713 963 993 1508 1100 993 810 685 632 565 595 831 1013 1179 981 894 708 564 455 462 516 372 178 14 7 17 111 65 24 0 0
0 0 0 0 0 0 0 0 0 1 32 13 0 27 429 571 515 587 689 772 1152 1224 1104 760 840 754 478 110 35 266 416 805 832 748 631 512 333 342 392 86 0 10 368 337 232 19 0 0 0
0 0 0 0 0 0 0 0 0 9 31 20 0 0 16 230 175 374 779 580 843 757 741 624 509 493 283 67 4 100 313 596 774 674 570 459 296 177 102 1 0 1 189 92 19 0 0 0 0
0 0 0 0 0 0 0 0 0 0 0 8 0 0 1 69 369 318 632 436 876 793 739 212 394 169 100 40 7 11 150 279 656 680 569 359 238 104 0 0 0 0 0 0 7 3 0 0 0
0 0 0 0 0 0 0 0 0 0 0 54 115 278 104 88 164 275 397 324 415 637 605 354 315 136 31 77 60 4 25 310 555 658 400 202 69 0 0 0 0 0 0 0 17 29 2 0 0
0 0 0 0 0 0 0 0 0 0 0 10 34 152 101 254 131 192 498 206 398 443 537 318 225 166 74 69 18 3 5 164 375 362 257 111 8 0 0 0 0 0 0 0 28 28 16 0 0
0 0 0 0 0 0 0 0 0 0 0 0 0 31 87 164 143 353 406 386 221 195 230 161 183 130 71 25 21 0 49 69 228 260 185 60 1 0 0 0 0 0 0 0 0 0 0 0 0
0 0 0 0 0 0 0 0 0 1 0 1 0 50 1 8 25 139 159 257 190 438 130 28 89 87 36 32 11 5 3 15 117 199 95 46 18 0 0 0 0 0 0 0 0 0 0 0 0
0 0 0 0 0 0 0 0 0 19 9 3 5 15 0 63 47 57 105 89 130 85 59 63 46 26 0 2 6 16 24 41 110 114 78 73 9 1 2 0 0 0 0 0 0 0 0 0 0
0 0 0 0 0 14 0 5 167 19 27 4 31 104 2 1 7 2 13 102 72 77 72 92 29 17 1 2 10 0 20 72 78 85 79 27 4 10 11 10 1 0 0 0 0 0 0 0 0
0 0 0 0 0 0 2 1 0 22 39 12 32 329 67 2 13 3 12 20 37 25 59 22 69 15 9 2 1 2 3 4 5 77 74 27 14 9 14 18 13 3 0 0 0 0 0 0 0
0 0 0 0 0 0 0 0 0 24 36 25 18 462 202 2 1 2 0 0 12 46 20 40 17 15 7 6 6 4 4 2 16 57 83 29 8 3 7 13 12 5 14 15 3 0 0 0 0
0 0 0 0 0 0 0 0 0 43 57 40 6 64 88 6 0 1 0 0 2 7 4 36 25 35 16 23 1 26 28 22 53 101 67 34 17 3 8 14 10 7 12 17 33 4 0 0 0
0 0 0 0 0 0 0 0 0 55 65 82 5 0 0 0 0 0 0 0 0 4 21 2 27 15 7 27 31 56 70 78 54 65 46 38 27 16 15 26 42 17 27 46 63 14 8 0 0
0 0 0 0 0 0 0 0 0 7 81 121 81 0 0 0 0 0 0 0 0 0 8 0 6 7 14 12 27 4 0 8 14 58 89 79 62 57 61 79 82 53 47 88 72 4 1 0 0
0 0 0 0 0 0 0 0 0 0 25 92 131 65 0 0 0 0 0 0 0 0 1 1 3 21 18 10 9 2 4 7 78 116 82 141 117 109 103 119 98 181 97 112 81 24 11 0 0
0 0 0 0 0 0 0 0 0 0 0 16 81 82 35 1 0 0 0 0 0 0 0 1 0 0 8 9 2 5 1 1 0 43 68 51 83 71 39 73 93 142 112 104 77 30 14 5 1
0 0 0 0 0 0 0 0 0 0 0 0 0 31 81 31 2 0 0 0 0 0 0 0 0 2 0 3 0 0 5 0 0 8 9 3 7 6 6 10 47 88 73 95 122 89 43 13 13
0 0 0 0 0 0 0 0 0 0 0 0 0 0 2 49 75 45 0 0 0 0 0 0 0 0 0 0 0 0 0 0 0 5 0 0 0 0 0 2 5 79 101 98 156 153 94 54 61
0 0 0 0 0 0 0 0 0 0 0 0 0 0 0 0 36 131 149 37 1 0 0 0 0 0 0 0 0 0 0 0 0 0 0 0 0 0 0 0 0 3 106 165 209 178 153 130 58
0 0 0 0 0 0 0 0 0 0 0 0 0 0 0 0 2 81 163 139 72 1 0 0 0 0 0 0 0 0 0 0 0 0 0 0 0 0 0 0 0 0 3 38 91 125 134 145 113
0 0 0 0 0 0 0 0 0 0 0 0 0 0 0 0 0 21 85 139 122 85 1 0 0 0 0 0 0 0 0 0 0 0 0 0 0 0 0 0 0 0 0 1 12 60 115 113 59
0 0 0 0 0 0 0 0 0 0 0 0 0 0 0 0 0 14 86 168 165 127 88 1 0 0 0 0 0 0 0 0 0 0 0 0 0 0 0 0 0 0 22 20 41 61 34 4 19
0 0 0 0 0 0 0 0 0 0 0 0 0 0 0 0 4 12 76 140 150 159 173 144 71 24 0 0 0 0 0 0 0 0 0 0 0 0 0 0 0 7 39 58 68 50 10 0 6
0 0 0 0 0 0 0 0 0 0 0 0 0 0 0 0 0 26 68 107 149 144 162 218 224 174 135 51 0 0 0 0 0 0 0 0 0 0 0 0 1 13 28 45 29 49 6 0 78
0 0 0 0 0 0 0 0 0 0 0 0 0 0 0 0 0 0 44 37 82 120 184 197 241 277 251 206 180 170 110 9 4 8 21 0 0 0 11 0 22 36 18 44 116 80 33 21 155

GFSSGP_con_mucape_051.txt.gz
CAPE
0 0 0 0 0 0 0 0 0 0 0 31 173 274 134 264 280 120 498 834 953 337 913 1028 1299 1555 1620 1698 1825 1835 1831 1690 1600 1381 1318 1296 1093 804 642 522 412 380 292 23 27 23 26 44 38
0 0 0 0 0 0 0 0 0 0 0 14 44 154 258 245 460 650 657 931 1238 824 1351 1292 1414 1345 1611 1603 1579 1619 1841 1767 1532 1428 1268 1162 878 774 688 519 394 397 344 33 36 27 23 37 67
0 0 0 0 0 0 0 0 0 0 0 15 177 115 342 310 339 620 626 685 1595 1376 1351 1460 1550 1495 1649 1677 1576 1705 1693 1524 1391 1280 1199 963 900 852 757 567 585 477 336 111 64 49 37 37 62
0 0 0 0 0 0 0 0 0 0 0 0 1 42 198 445 348 655 578 570 1474 1285 1382 1460 1482 1537 1739 1809 1721 1733 1497 1325 1184 1126 996 958 1006 956 755 600 497 533 487 355 96 15 10 59 13
0 0 0 0 0 0 0 0 0 0 0 0 25 72 70 683 559 701 667 606 1126 1272 1560 1351 1099 1156 1671 1862 1866 1725 1422 1255 1100 1036 794 883 987 823 644 517 468 433 404 303 221 4 6 6 0
0 0 0 0 0 0 0 0 0 0 0 0 0 0 238 425 353 403 544 547 962 1111 1238 1286 1086 955 1161 1433 1499 1403 1263 1174 1051 839 667 827 753 562 478 253 153 150 286 442 257 60 2 0 0
0 0 0 0 0 0 0 0 0 0 0 2 0 0 0 132 224 297 333 427 691 848 799 719 840 575 395 633 767 827 906 833 753 570 422 461 449 379 202 140 359 333 418 281 150 2 0 0 0
0 0 0 0 0 0 0 0 0 0 0 0 0 4 1 77 134 287 345 335 549 623 693 371 256 558 176 231 246 446 510 317 253 420 258 260 250 150 55 224 474 427 289 190 55 14 1 4 0
0 0 0 0 0 0 0 0 0 0 0 8 78 155 55 44 181 322 246 486 460 620 674 517 666 445 173 104 3 128 358 262 174 325 203 146 118 0 0 54 258 220 109 63 30 14 10 4 0
0 0 0 0 0 0 0 0 0 0 0 0 35 21 17 21 130 253 277 311 354 332 437 294 273 194 83 56 33 48 166 133 123 334 254 97 39 0 0 21 58 85 90 68 55 24 6 0 0
0 0 0 0 0 0 0 0 0 0 0 0 14 9 40 29 67 200 99 156 112 201 284 226 156 189 172 79 34 31 10 59 94 343 159 47 0 0 1 2 14 32 57 52 22 4 0 0 0
0 0 0 0 0 0 0 0 0 0 0 0 0 8 13 7 85 65 34 202 115 114 138 153 127 136 149 61 41 13 7 40 91 310 88 0 10 0 3 2 0 0 9 63 12 0 0 0 0
0 0 0 0 0 0 0 0 0 2 0 0 8 9 4 2 16 26 25 16 45 185 140 104 190 101 88 49 11 8 3 42 93 195 72 6 12 5 0 0 0 0 0 0 0 0 0 0 0
0 0 0 0 0 0 0 0 91 9 0 0 36 18 1 38 2 1 8 29 22 24 54 68 52 75 32 4 9 10 10 39 99 141 79 74 25 6 0 0 0 0 0 0 0 0 0 0 0
0 0 0 0 0 0 0 1 18 3 0 0 3 1 132 7 6 5 3 0 32 43 61 2 18 23 1 12 24 18 28 41 84 90 91 107 17 12 3 0 0 0 0 0 0 0 0 0 0
0 0 0 0 0 0 0 0 0 6 41 24 8 2 1 9 1 2 3 60 53 33 52 41 6 34 4 7 1 23 20 19 33 60 94 49 26 10 8 16 16 10 4 0 0 0 0 0 0
0 0 0 0 0 0 0 0 0 14 59 69 15 0 2 0 1 0 5 11 17 25 19 5 8 3 0 9 2 13 16 12 17 40 78 58 42 17 31 38 41 42 32 14 18 7 0 0 0
0 0 0 0 0 0 0 0 0 27 78 96 79 5 1 0 1 0 9 1 8 4 0 2 21 5 18 7 8 8 6 11 15 52 58 55 43 25 17 29 41 28 26 26 59 51 7 0 0
0 0 0 0 0 0 0 0 0 0 60 114 114 31 2 0 0 0 0 1 0 0 4 0 7 9 0 2 0 8 7 0 0 93 75 77 77 65 58 34 15 18 7 47 69 65 46 7 0
0 0 0 0 0 0 0 0 0 0 20 60 129 99 21 0 0 0 0 7 0 0 0 3 0 14 7 15 13 1 4 4 3 21 60 86 91 64 81 84 53 38 39 32 52 67 40 25 11
0 0 0 0 0 0 0 0 0 0 0 1 60 100 69 15 0 0 0 0 3 0 0 0 0 20 3 7 3 2 4 2 1 37 51 37 71 67 115 146 146 102 114 37 51 75 53 29 7
0 0 0 0 0 0 0 0 0 0 0 0 0 40 71 80 7 3 0 0 2 1 0 0 0 1 16 1 3 18 2 7 0 7 6 59 60 70 116 183 136 90 134 129 114 92 71 43 18
0 0 0 0 0 0 0 0 0 0 0 0 0 0 20 8 35 10 18 0 0 3 0 0 0 0 3 10 6 5 3 8 6 8 1 29 27 33 56 62 111 141 119 112 82 58 61 112 83
0 0 0 0 0 0 0 0 0 0 0 0 0 0 0 0 0 27 66 46 1 0 0 0 0 0 0 1 0 2 4 4 0 2 3 1 24 9 10 7 65 104 114 99 57 61 75 92 148
0 0 0 0 0 0 0 0 0 0 0 0 0 0 0 0 0 0 28 108 54 3 0 0 0 0 0 0 0 0 1 1 0 0 0 0 0 0 0 5 25 29 31 73 90 40 78 95 102
0 0 0 0 0 0 0 0 0 0 0 0 0 0 0 0 0 0 0 39 126 54 6 0 0 0 0 0 0 0 0 0 0 0 0 0 0 0 0 1 5 5 0 11 47 75 57 27 11
0 0 0 0 0 0 0 0 0 0 0 0 0 0 0 0 0 0 1 12 88 103 70 12 0 0 0 0 0 0 0 0 0 0 0 0 0 0 0 0 0 0 0 10 14 27 41 38 55
0 0 0 0 0 0 0 0 0 0 0 0 0 0 0 0 0 0 0 9 45 100 94 92 39 0 0 0 0 0 0 0 0 0 0 0 0 0 0 0 0 0 1 0 2 21 23 29 37
0 0 0 0 0 0 0 0 0 0 0 0 0 0 0 0 0 0 0 0 24 78 126 117 131 106 53 0 0 1 0 0 0 0 0 0 0 0 0 0 0 1 8 32 38 44 38 39 12
0 0 0 0 0 0 0 0 0 0 0 0 0 0 0 0 0 0 0 6 12 46 96 127 127 171 194 158 129 40 0 0 0 0 0 0 0 0 0 0 0 0 7 36 21 10 51 40 22

GFSSGP_con_mucape_054.txt.gz
CAPE
0 0 0 0 0 0 0 0 0 0 0 0 161 228 93 178 162 216 846 880 1202 1093 1172 1176 1515 1637 2140 1992 1912 1869 1965 1878 1669 1623 1611 1525 1464 1412 1209 978 789 699 595 126 21 22 26 28 24
0 0 0 0 0 0 0 0 0 0 0 12 137 95 226 226 513 877 963 888 1144 907 1259 1035 1560 1579 2131 2110 2030 2010 2127 1965 1710 1785 1664 1512 1244 1065 892 602 459 382 332 26 29 34 25 24 72
0 0 0 0 0 0 0 0 0 0 0 13 42 203 315 378 499 902 677 771 1094 1125 1095 928 1526 1744 1826 2123 2121 2056 1948 1812 1694 1674 1536 1349 1199 984 760 417 305 334 223 24 24 38 34 31 40
0 0 0 0 0 0 0 0 0 0 0 0 6 29 260 504 580 900 708 822 1153 1517 1405 1384 1385 1640 1736 1945 2021 1997 1819 1601 1458 1398 1303 1309 1274 1038 758 403 387 501 382 68 20 26 26 23 17
0 0 0 0 0 0 0 0 0 0 0 0 26 14 123 761 754 841 932 716 1180 1401 1690 1477 1313 1530 1321 1072 2009 1891 1676 1463 1415 1251 1217 1240 1228 1021 754 476 514 510 438 78 18 19 5 1 1
0 0 0 0 0 0 0 0 0 0 0 0 0 5 95 762 691 797 678 998 1420 1231 1785 1549 1444 1290 1153 1275 1168 1482 1369 1129 1264 1189 1216 1263 1107 836 656 597 508 341 331 144 100 23 2 0 0
0 0 0 0 0 0 0 0 0 0 0 0 0 6 53 287 501 747 576 926 1158 927 1120 1547 1401 1037 946 804 1115 1176 1102 1031 1019 1120 1150 1011 801 641 518 372 368 423 338 175 116 12 0 0 0
0 0 0 0 0 0 0 0 0 0 0 45 6 4 22 409 287 464 719 795 1043 1089 951 638 633 866 839 1009 293 698 851 831 778 875 748 569 520 291 300 299 511 497 305 148 111 28 0 0 0
0 0 0 0 0 0 0 0 0 0 0 36 128 137 375 172 208 422 609 790 834 621 717 446 154 137 355 304 248 637 663 561 523 537 390 305 294 192 112 105 413 351 132 101 99 26 0 0 0
0 0 0 0 0 0 0 0 0 0 0 0 79 279 182 49 131 320 365 606 529 383 502 564 100 233 219 109 89 54 215 377 257 112 181 326 335 141 38 347 312 211 100 103 74 22 0 0 0
0 0 0 0 0 0 0 0 0 0 0 0 2 137 179 138 101 231 417 320 498 374 272 582 234 255 61 5 11 6 89 30 13 9 93 238 225 53 243 417 286 173 53 8 9 0 0 0 0
0 0 0 0 0 0 0 0 0 0 0 0 0 14 126 156 205 232 274 306 162 107 165 305 305 169 145 45 59 42 97 64 35 18 94 405 192 169 143 142 156 108 52 34 13 2 0 0 0
0 0 0 0 0 0 0 0 0 0 4 0 33 67 111 204 187 94 80 219 105 22 127 83 139 157 148 156 116 49 36 20 32 85 171 206 147 140 61 107 129 127 141 94 45 17 11 0 0
0 0 0 0 0 0 0 0 5 2 44 72 133 85 95 40 44 20 2 64 134 65 136 88 73 77 71 127 83 10 26 12 67 80 182 104 98 101 24 33 12 29 97 89 23 15 4 0 0
0 0 0 0 0 0 0 0 11 0 99 117 167 74 9 66 27 12 5 24 93 23 9 13 74 94 74 68 15 12 12 15 93 131 184 92 63 79 63 3 6 6 10 18 1 6 0 0 0
0 0 0 0 0 0 0 0 0 8 91 91 168 44 16 27 9 0 5 0 0 54 16 51 20 3 13 0 2 3 15 43 82 139 132 70 16 63 51 9 6 2 2 3 0 3 0 0 0
0 0 0 0 0 0 0 0 0 0 37 27 153 145 53 24 13 0 0 8 2 8 22 43 36 6 1 0 0 7 7 11 37 138 96 60 21 4 26 8 15 28 10 6 0 0 0 0 0
0 0 0 0 0 0 0 0 0 0 4 38 102 219 87 44 4 0 2 5 5 3 13 8 1 17 2 0 3 8 4 3 35 64 122 94 32 41 38 16 34 53 27 27 1 0 0 0 0
0 0 0 0 0 0 0 0 0 0 0 42 127 276 184 76 16 0 1 4 7 15 2 0 6 3 1 2 0 0 12 0 0 2 75 174 58 53 70 32 56 51 73 73 52 43 27 0 0
0 0 0 0 0 0 0 0 0 0 0 58 124 253 312 141 58 1 0 6 5 14 2 0 2 0 3 17 0 0 0 1 3 5 50 135 171 60 88 64 49 46 101 146 128 93 44 40 19
0 0 0 0 0 0 0 0 0 0 0 8 71 104 292 318 120 39 0 0 12 15 21 0 0 4 14 8 2 6 0 1 1 0 68 144 190 114 104 114 103 85 87 127 194 187 164 175 57
0 0 0 0 0 0 0 0 0 0 0 0 2 171 250 367 244 88 31 0 0 5 19 27 5 0 4 0 0 0 1 0 0 0 29 93 168 150 115 133 157 204 151 131 207 215 206 276 198
0 0 0 0 0 0 0 0 0 0 0 0 0 6 184 313 407 207 89 66 5 0 13 13 16 0 0 4 1 5 1 1 0 1 0 113 155 146 107 133 208 274 346 302 354 300 302 289 483
0 0 0 0 0 0 0 0 0 0 0 0 0 0 20 129 321 329 168 86 43 0 6 8 17 0 1 1 4 3 12 7 3 0 0 0 31 132 180 173 268 303 292 361 490 467 398 372 306
0 0 0 0 0 0 0 0 0 0 0 0 0 0 0 41 192 276 265 150 70 23 1 6 7 12 21 1 0 2 3 4 11 3 6 7 2 27 35 111 123 120 159 224 258 369 427 429 407
0 0 0 0 0 0 0 0 0 0 0 0 0 0 0 16 161 190 289 237 143 69 1 0 1 6 16 4 0 29 28 61 19 9 1 3 0 21 17 42 66 56 73 94 119 138 215 262 391
0 0 0 0 0 0 0 0 0 0 0 0 0 0 0 0 77 132 195 296 236 124 25 0 0 0 2 15 40 28 26 39 40 14 18 8 8 4 27 9 9 3 7 27 56 134 89 226 394
0 0 0 0 0 0 0 0 0 0 0 0 0 0 0 0 0 15 143 259 243 186 52 16 0 0 0 6 32 33 46 47 62 70 45 22 32 12 0 0 0 12 20 42 42 143 120 182 349
0 0 0 0 0 0 0 0 0 0 0 0 0 0 0 0 7 34 103 216 226 226 142 53 26 1 1 7 16 37 114 62 52 171 101 44 34 22 5 8 4 7 17 41 82 146 181 254 365
5 0 0 0 0 0 0 0 3 0 0 0 0 0 0 0 0 2 141 239 220 249 203 175 79 50 19 0 4 91 43 38 79 126 109 151 108 10 31 22 5 5 54 77 99 106 70 135 188

GFSSGP_con_mucape_057.txt.gz
CAPE
0 0 0 0 0 0 0 0 0 0 0 0 0 0 2 0 1 154 1099 1201 1544 1346 1544 1183 1445 1935 2089 1960 1798 1789 1843 1856 1720 1592 1603 1618 1489 1406 1290 1057 925 925 697 115 57 163 110 79 48
0 0 0 0 0 0 8 0 0 0 0 0 0 0 1 16 139 258 1009 1233 1336 1313 1611 1194 1549 1657 2081 1969 1819 1819 1850 1875 1772 1699 1745 1650 1405 1287 1214 991 890 815 525 18 17 65 55 8 8
0 0 0 0 0 0 2 0 0 0 0 0 0 17 0 0 382 712 1066 1166 1320 1528 1525 1462 1549 1669 1952 1985 1897 1842 1884 1725 1794 1755 1918 1618 1370 1332 1100 753 686 639 366 51 14 28 17 14 10
0 0 0 0 0 0 0 0 0 0 0 0 0 2 54 361 603 1033 1047 1023 1490 1676 1320 1306 1422 1650 1976 1850 1939 1883 1780 1490 1300 1459 1774 1617 1431 1184 885 539 488 478 273 100 70 26 10 0 0
0 0 0 0 0 0 0 0 0 0 0 0 3 14 18 676 752 896 1014 979 1348 1768 1635 1449 1279 1548 1637 1751 1697 1569 1472 1252 1361 1556 1517 1385 1169 988 686 491 344 337 265 189 50 12 0 0 0
0 0 0 0 0 0 0 0 0 0 0 0 3 2 8 958 610 940 912 1132 1191 1689 1929 1603 1367 1263 1243 1330 769 677 865 1074 1284 1374 1400 1318 1000 728 667 659 555 266 188 195 95 11 4 6 0
0 0 0 0 0 0 0 0 0 0 0 0 32 0 1 369 531 680 864 932 1166 1485 1811 1894 1610 1256 840 610 585 376 916 1097 1203 1171 1142 1031 761 658 669 690 540 257 184 142 31 14 12 0 0
0 0 0 0 0 0 0 0 0 0 0 13 0 0 1 818 569 598 669 700 767 1390 1185 1429 1319 1159 804 1021 289 224 329 569 991 1074 963 873 709 690 585 419 435 251 205 133 34 8 14 0 0
0 0 0 0 0 0 0 0 0 0 0 0 11 11 200 505 334 412 534 518 765 1100 950 734 874 883 751 596 307 372 322 327 766 970 641 591 611 579 320 267 370 227 79 53 3 5 0 0 0
0 0 0 0 0 0 0 0 0 0 0 0 0 4 398 356 215 203 197 343 651 790 870 470 526 440 438 366 110 203 171 213 445 747 621 215 253 322 247 296 265 118 42 0 2 0 0 0 0
0 0 0 0 0 0 0 0 0 0 0 9 0 0 334 383 143 250 126 365 492 549 698 302 137 80 197 56 250 157 861 619 300 84 2 0 198 274 352 430 365 61 1 0 0 0 0 0 0
0 0 0 0 0 0 0 0 0 0 0 0 0 0 168 155 204 267 260 425 475 549 405 297 169 63 75 65 119 81 56 69 22 12 6 58 142 278 443 307 211 22 0 0 0 0 14 0 0
0 0 0 0 0 0 0 0 0 0 0 1 0 54 59 6 106 243 268 358 287 238 350 105 161 190 31 6 33 22 99 35 34 11 15 51 171 241 386 309 221 65 87 1 3 10 5 2 4
0 0 0 0 0 0 0 0 0 0 0 0 11 171 83 17 33 167 282 367 302 24 30 50 87 96 67 0 8 14 50 23 23 18 3 53 183 205 310 319 290 188 170 69 20 32 4 1 3
0 0 0 0 0 0 0 0 0 0 0 0 45 173 122 69 20 31 123 285 242 149 15 44 11 75 43 34 63 68 29 18 15 9 42 126 182 265 393 369 306 256 242 158 57 16 3 0 1
0 0 0 0 0 0 0 0 0 0 0 0 46 128 137 44 3 4 31 162 135 19 6 2 39 16 24 23 33 68 23 15 13 5 113 156 168 224 284 164 130 84 152 83 31 0 1 0 0
0 0 0 0 0 0 0 0 0 0 0 0 24 129 153 147 8 0 1 36 133 8 0 1 3 4 0 16 2 20 25 19 10 44 144 171 126 88 114 28 85 92 81 59 13 9 6 1 0
0 0 0 0 1 0 0 0 0 0 0 0 10 78 208 162 90 7 0 0 57 15 0 0 0 4 1 0 0 21 26 4 31 73 110 79 59 84 117 102 187 77 40 15 6 60 8 10 1
0 7 7 0 0 0 0 0 0 0 0 0 9 40 189 196 131 0 11 0 14 12 22 22 0 0 0 0 0 0 5 1 14 83 89 107 69 72 110 69 190 169 98 69 135 13 3 1 1
0 0 0 0 0 0 0 0 0 0 0 0 4 36 117 288 175 36 43 0 17 9 22 5 1 4 2 1 0 0 1 0 7 27 120 122 145 63 95 110 78 156 151 261 227 168 34 5 2
0 0 0 0 0 0 0 0 0 0 0 0 0 0 24 223 264 184 58 42 0 17 18 0 0 7 0 2 21 0 20 2 2 0 29 108 163 72 78 119 144 167 239 327 333 239 200 92 61
0 0 0 0 0 0 0 0 0 0 0 0 0 0 0 45 273 249 125 129 17 2 11 19 0 0 0 3 2 0 0 0 0 0 3 45 137 114 52 130 253 293 229 352 426 319 297 341 253
0 0 0 0 0 0 0 0 0 0 1 0 0 0 0 0 210 319 259 171 93 24 11 17 3 1 1 0 0 0 0 0 4 0 0 67 130 75 101 193 296 327 314 371 405 440 463 378 367
0 0 0 0 0 0 0 0 0 0 1 0 0 0 0 0 90 299 298 245 181 36 35 16 27 0 0 0 0 0 0 1 1 0 0 11 93 154 125 186 241 346 468 498 437 436 529 549 474
0 0 0 0 0 0 0 0 0 0 0 0 0 0 2 2 1 277 365 304 238 105 34 6 10 27 1 1 0 0 0 5 2 3 4 0 0 30 121 198 182 324 414 453 252 379 590 626 648
0 0 2 0 0 0 0 0 0 0 0 0 0 0 0 0 5 230 411 430 281 250 75 9 2 8 24 0 0 0 0 4 1 8 8 4 3 2 62 212 305 399 481 525 403 451 457 271 387
0 0 0 2 0 27 11 5 0 0 0 0 0 0 0 0 10 106 235 490 494 357 210 58 1 0 8 23 2 0 0 1 23 38 49 30 12 22 54 125 249 323 360 375 368 458 487 420 566
0 0 0 0 0 0 12 33 47 0 0 2 1 5 4 15 32 27 142 327 545 497 365 169 29 0 5 8 20 21 8 2 58 32 119 90 31 37 50 52 69 78 156 216 268 217 267 258 343
0 0 0 3 0 0 0 9 13 15 0 0 0 1 12 2 0 6 13 137 449 554 498 341 92 24 11 81 79 63 98 72 71 129 226 265 239 85 50 45 60 51 72 91 128 104 130 177 214
22 0 0 0 0 0 72 0 0 0 0 0 0 0 0 0 1 3 36 174 366 544 575 434 173 75 39 61 212 373 479 390 254 311 509 495 400 339 221 72 103 52 45 89 145 122 79 155 177

GFSSGP_con_mucape_060.txt.gz
CAPE
0 0 0 0 0 0 0 0 0 0 0 0 0 0 0 0 0 282 1120 1255 1382 1350 1507 1449 1809 1975 1985 1852 1774 1727 1776 1738 1623 1661 1588 1524 1389 1278 1228 1177 1020 969 969 573 455 299 190 227 234
0 0 0 0 0 0 0 0 0 0 0 0 0 0 0 0 133 272 1361 1266 1223 1181 1502 1522 1558 2026 2042 1849 1762 1767 1859 1848 1741 1767 1679 1556 1505 1492 1268 1062 883 874 780 456 356 241 127 117 258
0 0 0 0 0 0 0 0 0 0 0 0 0 0 0 0 225 395 1122 1205 1170 1303 1735 1487 1413 1633 2035 1857 1764 1628 1653 1619 1605 1709 1807 1659 1648 1396 1053 1028 837 745 576 250 246 108 34 52 56
0 0 0 0 0 0 0 0 0 0 0 0 0 0 8 102 128 891 974 873 1388 1552 1721 1424 1316 1440 1693 1891 1719 1634 1452 1427 1477 1556 1634 1685 1610 1422 1175 918 749 614 369 103 122 59 25 27 21
0 0 0 0 0 0 0 0 0 0 0 0 0 0 3 592 809 768 927 876 1253 1597 1983 1386 1272 1507 1747 1682 1552 1556 1377 1357 1429 1502 1532 1482 1440 1264 1046 861 734 661 459 200 53 6 1 3 0
0 0 0 0 0 0 1 0 0 0 0 0 0 0 15 787 583 983 1018 881 1442 1562 1994 1813 1232 1409 1188 1586 1305 944 690 835 1226 1337 1438 1419 1094 907 817 693 627 534 352 191 78 15 1 0 0
0 0 0 0 0 0 1 0 0 0 0 0 6 0 0 532 538 721 987 864 1308 1448 1642 1926 1722 1353 836 746 575 314 60 99 727 1185 1116 984 756 724 740 827 582 439 251 144 62 3 0 0 0
0 0 0 0 0 0 0 0 0 0 0 0 0 0 0 899 625 716 651 656 919 1571 1656 1415 1370 1313 643 553 282 67 104 0 38 906 792 552 597 712 761 510 441 317 196 132 41 0 0 0 0
0 0 0 0 0 0 0 0 0 0 0 0 0 0 284 508 245 369 432 561 568 1121 1176 897 1131 1234 870 447 232 67 25 1 53 591 483 342 392 441 414 258 283 212 104 66 10 0 0 0 0
0 0 0 0 0 0 2 0 0 0 0 0 0 16 404 328 162 82 110 388 626 772 1067 635 770 674 392 244 164 97 76 2 100 360 284 324 360 246 235 155 205 158 66 7 0 0 0 0 0
0 0 0 0 0 0 0 0 0 0 0 0 8 0 647 491 160 157 85 165 466 621 877 730 381 446 228 154 119 93 40 128 66 149 157 278 249 208 169 107 74 13 1 0 0 0 0 0 0
0 0 0 0 0 0 0 0 0 0 0 0 0 0 0 213 205 267 140 297 475 498 430 384 297 167 130 184 139 39 41 70 97 42 52 52 32 122 169 108 3 0 0 0 0 0 0 0 0
0 0 0 0 0 0 0 0 0 0 0 0 0 0 0 31 0 68 130 303 280 220 417 185 15 26 120 126 180 79 66 3 9 17 8 4 15 53 116 83 1 0 0 0 0 0 0 0 0
0 0 0 0 0 0 0 0 0 0 0 0 0 0 40 42 0 24 159 288 230 57 51 103 41 78 135 110 78 113 49 11 3 1 18 11 8 33 110 136 22 0 0 0 0 1 0 0 0
0 0 0 0 0 0 0 0 0 0 0 0 0 0 75 60 0 0 127 276 232 47 0 2 25 44 14 37 57 51 38 10 10 7 2 2 26 23 148 151 107 27 6 0 0 5 0 4 2
0 0 0 0 0 0 0 0 0 0 0 0 0 7 107 73 35 3 0 166 173 46 2 22 0 58 22 6 3 20 50 27 11 8 2 5 26 91 140 149 126 66 53 35 37 1 0 2 1
0 0 0 0 0 0 0 0 0 0 0 0 0 13 121 128 47 11 0 89 114 45 46 0 0 2 3 23 12 11 33 24 4 13 2 2 18 78 70 90 107 111 70 41 19 1 0 0 6
0 0 0 0 0 0 0 0 0 0 0 0 0 0 86 153 143 31 1 0 66 0 91 3 0 2 0 4 0 0 0 24 16 4 10 19 16 38 7 41 24 34 39 29 10 5 4 3 2
0 0 0 2 1 1 0 0 0 0 0 1 0 0 14 213 189 42 28 0 39 0 20 0 0 0 0 0 0 0 0 5 3 3 1 40 39 34 56 43 57 32 14 3 23 36 13 7 0
0 0 0 0 0 0 0 0 0 0 0 0 0 7 0 89 169 82 51 0 38 6 3 13 0 0 0 0 0 0 1 3 2 1 0 2 38 41 30 50 60 73 119 102 50 15 25 5 0
0 0 0 0 0 0 0 0 0 0 0 0 0 0 10 40 180 112 112 21 31 20 6 7 0 0 0 0 0 0 5 2 0 0 0 4 17 3 15 58 91 96 118 84 71 73 49 0 0
0 0 0 0 0 0 0 0 0 0 0 0 0 0 0 3 234 211 144 114 2 24 1 3 4 0 0 0 0 0 0 0 0 0 0 0 79 30 32 62 79 70 47 126 140 139 127 104 2
0 3 0 0 0 0 0 0 0 0 0 0 0 0 0 0 67 260 200 189 46 28 1 1 6 0 2 0 0 0 0 0 1 0 0 0 59 121 39 54 104 67 42 46 100 150 165 154 152
0 0 0 0 0 0 0 0 0 0 0 0 5 3 0 2 6 227 304 201 181 16 27 1 2 7 0 0 0 0 0 0 0 1 3 2 11 93 99 49 68 112 123 74 109 158 178 168 225
0 0 0 0 0 0 0 0 0 0 0 0 0 0 0 15 20 174 345 214 237 79 55 1 4 8 12 0 0 0 0 0 1 0 0 4 1 13 65 43 42 79 80 126 159 146 164 250 174
0 0 0 0 0 0 0 0 0 0 0 0 0 0 3 6 26 47 305 324 281 169 111 13 2 4 4 8 0 0 0 0 1 6 8 6 7 2 3 22 15 47 61 87 177 170 148 128 161
0 0 0 0 0 0 0 1 0 0 0 0 0 0 0 0 0 35 310 466 309 286 107 32 0 6 5 4 12 0 0 0 0 3 7 9 10 5 2 32 36 19 35 90 130 126 118 104 117
0 0 0 0 0 0 22 24 5 11 0 0 3 0 1 20 10 36 87 529 440 391 227 126 9 0 0 4 5 0 0 0 0 0 0 0 0 0 7 8 56 55 47 83 132 134 82 100 107
0 0 0 0 0 0 0 5 12 0 4 22 3 10 5 10 0 5 84 157 543 485 382 199 82 10 0 0 5 3 2 2 0 0 0 0 0 0 0 0 3 10 44 56 60 53 61 78 74
0 0 0 0 0 0 0 23 7 0 0 0 0 0 1 6 18 17 19 170 290 568 515 416 231 76 15 9 0 2 7 8 0 0 0 1 0 0 0 0 0 0 0 5 14 17 16 26 30

GFSSGP_con_mucape_063.txt.gz
CAPE
0 0 0 0 0 0 0 0 0 0 0 0 0 0 0 0 37 378 1143 932 1318 1318 1353 1704 1783 1672 1713 1666 1690 1714 1661 1671 1711 1675 1488 1233 1225 1168 1158 1234 1190 1219 1181 691 390 482 272 356 493
0 0 0 0 0 0 0 0 0 0 0 0 0 0 0 1 854 1131 1218 1038 1160 1365 1298 1641 1925 1806 1811 1700 1764 1805 1835 1799 1856 1779 1566 1408 1515 1499 1353 1203 1176 1233 1093 667 585 377 416 439 415
0 0 0 0 0 0 0 0 0 0 0 0 0 0 0 121 197 982 1033 1095 1094 1273 1483 1575 1935 1904 1861 1770 1807 1832 1799 1695 1800 1727 1685 1678 1706 1604 1429 1156 1179 1148 1158 714 497 255 269 412 328
0 0 0 0 0 0 0 0 0 0 0 0 0 0 12 30 202 1028 865 1069 1141 1139 1428 1471 1735 1946 1894 1860 1823 1696 1696 1479 1615 1619 1681 1805 1748 1577 1316 1024 958 1063 1114 469 215 219 211 60 50
0 0 0 0 0 0 0 0 0 0 0 0 0 0 111 679 913 791 724 732 1190 1100 1394 1413 1342 1725 1871 1932 1822 1604 1520 1194 1547 1604 1740 1662 1538 1337 1100 878 855 912 885 526 166 167 68 12 22
0 0 0 0 0 0 0 0 0 0 0 0 0 0 242 627 574 807 682 771 1004 1190 1486 1455 1211 1410 1438 1626 1380 1366 1358 948 970 1331 1491 1529 1265 1083 887 788 618 558 465 267 166 57 24 9 0
0 0 0 0 0 0 0 0 0 0 0 0 0 0 422 474 744 804 672 530 648 944 1177 1504 1137 985 960 895 782 550 491 230 293 393 1209 1068 844 817 819 840 677 504 270 151 77 41 0 0 0
0 0 0 0 0 0 0 0 0 0 0 0 0 0 393 425 478 372 533 530 569 788 1131 1240 1115 994 874 492 555 459 245 265 37 55 104 546 372 637 675 600 546 362 184 124 82 24 0 0 0
0 0 0 0 0 0 0 0 0 0 0 0 0 0 599 460 343 251 353 393 239 761 738 585 906 917 728 619 381 209 133 83 28 8 29 373 381 381 324 337 337 202 80 49 7 0 0 0 0
0 0 0 0 0 0 0 3 1 0 0 0 0 380 443 131 142 105 31 277 224 399 462 434 632 773 687 566 216 124 92 61 21 17 10 248 279 208 224 186 176 99 40 22 0 0 0 0 0
0 0 0 0 0 0 0 0 0 0 0 0 2 293 203 97 26 0 21 69 162 413 488 265 468 490 517 276 127 95 57 43 39 127 98 192 251 196 66 66 53 21 3 0 0 0 0 0 0
0 0 0 0 0 0 0 0 0 0 0 0 0 302 371 240 53 22 37 118 324 411 433 321 326 276 349 180 95 39 12 38 14 40 115 130 218 82 38 33 28 6 0 0 0 0 0 0 0
0 0 0 0 0 0 0 0 0 0 0 0 0 0 33 89 50 44 94 225 211 300 277 166 224 178 75 59 51 37 35 23 35 53 28 59 78 49 29 6 3 0 0 0 0 0 0 0 0
0 0 0 0 0 0 0 0 0 0 0 0 0 2 0 0 3 13 153 176 101 152 72 65 37 146 149 29 16 2 38 21 17 28 19 18 83 25 10 0 0 0 0 0 0 0 0 0 0
0 0 0 0 0 0 0 0 0 0 0 0 0 0 0 0 0 35 50 159 75 27 37 188 228 52 95 37 12 0 9 6 3 1 0 0 8 2 13 0 0 0 0 0 0 0 0 0 0
0 0 0 0 0 0 0 0 0 0 0 0 0 4 5 24 13 0 24 113 80 20 0 68 127 83 77 26 14 23 0 6 13 33 5 17 4 1 36 5 0 2 0 0 0 0 0 0 0
0 0 0 0 0 0 0 0 0 0 0 0 0 1 24 22 24 5 30 96 65 15 0 5 57 50 33 39 25 25 16 9 36 38 12 7 1 1 20 26 1 23 0 2 5 0 0 0 0
0 0 0 0 0 0 0 0 0 0 0 0 0 0 36 42 17 11 10 47 35 18 0 0 4 8 34 5 4 5 19 24 37 32 42 16 11 6 34 44 31 48 36 31 29 12 4 0 0
0 0 0 0 0 0 0 0 0 0 0 0 0 0 0 75 59 15 35 40 0 0 0 2 2 5 6 23 25 31 1 21 34 42 19 11 4 7 34 35 43 25 67 51 23 25 0 0 0
0 0 0 0 0 0 0 0 0 0 0 0 0 0 0 67 65 34 42 23 0 0 0 0 2 4 2 5 0 0 0 0 18 9 3 12 3 8 4 5 23 18 47 43 35 12 11 8 2
0 0 0 0 0 0 0 0 0 0 0 0 0 0 0 39 85 34 42 30 0 0 0 0 1 3 0 0 0 0 0 2 0 1 5 3 0 6 11 1 11 22 13 10 41 16 11 9 5
0 0 0 0 0 0 0 0 0 0 0 0 0 0 0 46 84 55 41 39 19 0 0 0 2 3 0 0 0 0 0 0 1 9 2 2 3 2 11 9 1 1 2 49 27 13 3 0 4
0 0 0 0 0 0 0 0 0 0 0 0 0 0 0 22 62 73 62 58 35 0 0 0 3 3 0 0 0 0 0 0 3 11 21 1 1 5 11 0 2 4 25 71 20 8 1 15 6
0 0 0 0 0 0 0 0 0 0 0 0 0 0 0 3 70 94 101 87 79 13 0 0 1 5 4 0 0 0 0 0 0 2 0 10 5 3 0 0 5 6 1 13 85 35 17 19 69
0 0 0 0 0 0 0 0 0 0 0 0 0 0 0 0 99 108 119 128 90 82 12 0 0 1 3 3 0 0 0 0 0 0 0 3 13 7 2 2 14 39 18 0 30 91 67 51 42
0 0 0 0 0 0 0 0 0 0 0 0 0 0 0 0 137 138 139 153 118 108 73 0 0 1 2 3 0 0 0 0 0 0 0 0 0 13 9 4 1 16 56 79 76 81 102 100 61
0 0 0 0 0 0 0 1 0 0 1 1 0 1 6 18 169 192 196 160 151 138 118 40 1 0 6 4 3 0 0 0 0 0 0 4 2 11 11 4 0 5 16 57 88 123 92 106 127
0 0 0 0 0 0 0 1 14 0 0 0 0 0 6 21 30 254 205 179 158 166 172 129 71 16 0 2 3 3 0 3 0 0 0 0 0 3 4 8 2 3 0 29 73 72 89 86 66
0 0 0 0 0 0 0 8 1 0 0 0 0 0 0 16 16 62 232 181 177 189 205 161 158 120 9 0 0 1 1 4 5 0 0 0 0 0 0 0 0 1 5 0 10 26 40 50 31
7 0 0 0 0 0 0 7 8 0 0 0 0 3 5 3 0 0 9 140 246 245 222 226 249 251 214 44 0 0 1 1 2 3 0 0 0 0 0 0 0 0 0 2 0 0 7 10 7

GFSSGP_con_mucape_066.txt.gz
CAPE
0 0 0 0 0 0 0 0 0 0 0 0 0 0 8 10 48 28 790 912 1314 1199 1620 1444 1478 1666 1756 1704 1679 1648 1803 1810 1695 1548 1397 1288 1214 1051 917 875 1012 1193 1167 757 633 743 736 493 634
0 0 0 0 0 0 0 0 0 0 0 0 0 0 0 511 976 1061 882 1148 1315 1151 1516 1691 1537 1674 1784 1747 1740 1739 1864 1875 1747 1517 1449 1366 1295 1535 1434 1263 1145 1202 1061 580 388 745 567 574 516
0 0 0 0 0 0 0 0 0 0 0 0 0 0 0 440 1044 1046 1046 1018 1327 1221 1429 1801 1629 1657 1718 1767 1740 1715 1763 1808 1712 1518 1568 1536 1673 1677 1582 1414 1322 1338 1282 861 707 560 597 555 291
0 0 0 0 0 0 0 0 0 0 0 0 0 0 22 114 1017 928 1043 860 1302 1320 1459 1794 1780 1689 1757 1799 1794 1760 1701 1662 1620 1504 1678 1770 1781 1720 1594 1342 1319 1249 1185 937 663 564 643 257 139
0 0 0 0 0 0 0 0 0 0 0 0 0 0 66 822 788 855 923 906 805 1216 1359 1648 1884 1815 1785 1824 1823 1749 1607 1594 1624 1605 1719 1779 1732 1575 1362 1131 1099 1037 1136 975 774 640 398 166 59
0 0 0 0 0 0 0 0 0 0 0 0 0 122 288 837 718 568 605 847 1020 1172 1280 1430 1846 1907 1738 1550 1417 1569 1419 1469 1540 1566 1686 1756 1488 1249 1159 1076 973 992 735 618 453 158 75 21 0
0 0 0 0 0 0 0 0 0 0 0 0 0 26 547 630 681 628 526 806 1011 1257 1204 1299 1417 1504 1255 1276 1125 913 692 829 792 277 745 1160 989 930 1015 981 900 639 480 451 237 97 12 10 0
0 0 0 0 0 0 0 0 0 0 0 4 0 314 550 570 717 644 442 273 752 795 1199 1029 896 1054 947 900 862 775 439 247 192 147 80 269 551 771 735 637 582 464 367 256 165 41 23 2 1
0 0 0 0 0 0 0 0 0 0 4 5 0 168 284 705 717 504 308 280 479 774 735 729 900 957 889 832 495 561 398 281 180 47 19 85 132 290 429 337 340 310 139 121 81 10 15 0 0
0 0 0 0 0 0 0 0 0 0 1 0 336 618 543 583 462 146 256 210 800 703 461 428 709 848 831 727 584 417 324 156 113 46 24 46 61 195 293 267 211 125 116 90 40 0 0 0 0
0 0 0 0 0 0 4 0 0 0 0 0 93 618 522 403 192 148 57 227 94 280 319 398 626 677 570 637 672 281 161 62 82 41 8 2 122 157 210 126 69 53 81 9 0 0 0 0 0
0 0 0 0 0 0 0 0 0 0 0 0 104 459 320 200 123 26 23 23 131 404 309 340 436 526 442 335 250 145 59 52 50 17 7 13 58 100 85 56 11 14 0 0 0 0 0 0 0
0 0 0 0 0 0 0 0 0 0 0 0 218 257 153 140 90 33 40 143 352 334 238 220 306 402 388 289 48 34 34 36 54 41 7 25 59 43 24 24 5 2 0 0 0 0 0 0 0
0 0 0 0 0 0 0 0 0 0 0 6 255 244 293 232 111 28 89 186 274 222 168 210 268 313 231 168 64 39 55 36 19 69 33 68 9 23 15 1 0 0 0 0 0 0 0 0 0
0 0 0 0 0 0 0 0 0 0 0 0 0 3 350 221 92 68 112 114 153 102 41 60 134 143 156 190 28 23 29 29 41 67 51 31 22 17 17 0 0 1 0 0 0 0 0 0 0
0 0 0 0 0 0 0 0 0 0 0 0 0 0 0 19 38 57 140 86 73 20 0 23 51 118 42 31 2 1 21 39 57 20 34 29 53 15 17 2 0 0 0 0 0 0 0 0 0
0 0 0 0 0 0 0 0 0 0 0 0 0 0 4 22 19 47 111 94 74 30 0 1 29 94 72 105 0 3 16 43 47 44 37 24 57 49 28 7 0 0 0 0 0 0 0 0 0
0 0 0 0 0 0 0 0 0 0 0 0 0 0 4 42 49 57 61 98 80 14 0 0 1 30 55 43 7 8 1 48 44 44 31 45 64 49 28 18 0 0 0 0 0 0 0 0 0
0 0 0 0 0 0 0 0 0 0 0 0 0 0 0 49 67 73 54 101 61 0 0 0 3 6 6 13 19 23 12 16 41 18 21 37 7 13 32 26 8 2 0 0 1 0 0 0 2
0 0 0 0 35 7 0 0 0 0 0 0 0 0 4 47 112 86 91 75 28 6 0 0 0 13 2 4 5 2 2 14 33 50 34 33 6 3 28 17 12 19 2 2 7 3 1 10 16
0 0 0 0 5 6 0 0 0 0 0 0 0 0 0 35 119 93 104 71 28 6 0 0 0 4 46 6 6 9 10 19 23 14 40 9 6 10 8 22 10 36 49 2 10 17 15 0 17
0 0 0 0 0 0 1 0 0 0 0 0 0 0 0 7 81 110 115 77 33 8 1 0 0 2 3 5 1 0 0 0 0 4 3 4 24 12 15 23 46 32 59 50 45 45 6 0 21
0 0 0 0 0 0 0 0 0 0 0 0 0 0 0 0 20 124 122 101 40 19 0 0 0 1 4 0 0 0 0 0 0 0 0 19 12 10 10 21 46 41 78 55 40 14 20 0 14
0 0 0 0 0 0 0 0 0 0 0 0 0 0 0 0 8 121 136 106 61 30 7 0 0 1 2 7 1 0 0 0 0 0 1 3 5 4 6 23 51 45 10 13 9 0 32 13 28
0 0 0 0 0 0 0 0 0 0 0 0 0 0 0 0 13 126 140 101 83 47 43 12 0 0 1 2 5 6 0 0 0 0 0 9 5 6 13 6 26 19 14 12 29 21 27 32 8
0 0 0 0 0 0 0 0 0 0 0 0 0 0 0 0 17 127 132 104 106 66 47 50 0 0 0 1 1 0 0 0 0 0 0 8 4 14 7 4 2 6 4 2 0 88 51 17 6
0 0 0 0 0 0 0 0 0 0 0 0 0 0 0 15 13 114 137 138 131 104 69 66 9 0 1 1 2 0 0 0 0 0 0 0 1 10 12 12 6 7 3 14 7 9 48 65 34
0 0 0 0 0 0 0 0 0 0 0 0 0 0 0 50 66 117 190 175 164 130 91 89 78 19 1 0 1 1 0 0 0 0 0 0 0 0 13 17 17 11 5 12 43 46 28 15 16
0 0 0 0 0 0 0 0 6 0 0 0 0 0 0 17 76 101 138 187 167 165 152 144 165 139 104 20 0 1 1 1 0 0 0 0 0 0 0 6 8 11 7 1 1 17 29 29 24
0 0 0 0 0 0 0 8 0 0 0 0 4 7 0 2 44 186 219 224 267 203 204 195 187 189 169 197 128 0 0 2 2 1 4 0 0 0 0 0 0 0 0 0 0 0 0 6 19

GFSSGP_con_mucape_069.txt.gz
CAPE
0 0 0 0 0 0 0 0 0 0 0 0 0 0 0 3 0 1 625 977 1109 1250 1331 1326 1495 1646 1623 1491 1603 1689 1669 1687 1625 1588 1540 1471 1384 1310 1269 1302 1362 1346 1347 1139 1043 1007 1009 881 863
0 0 0 0 0 0 0 0 0 0 0 0 0 0 0 285 797 722 726 957 1260 1372 1402 1337 1512 1647 1744 1657 1668 1750 1842 1779 1673 1565 1491 1393 1350 1303 1274 1301 1296 1313 1329 1193 1138 1107 929 717 698
0 0 0 0 0 0 0 0 0 0 0 0 0 0 3 274 882 764 752 1237 1178 1349 1484 1380 1534 1603 1742 1729 1727 1771 1784 1724 1604 1527 1519 1382 1267 1251 1345 1300 1247 1304 1318 1194 1045 894 733 600 391
0 0 0 0 0 0 0 0 0 0 0 0 0 0 2 329 846 910 886 1274 1253 1135 1553 1570 1485 1532 1764 1785 1764 1743 1756 1545 1504 1473 1463 1505 1623 1573 1490 1303 1248 1240 1165 1267 1069 680 462 390 291
0 0 0 0 0 0 0 0 0 0 0 0 0 0 7 639 850 960 1009 1210 1321 1178 1393 1681 1506 1512 1729 1844 1795 1681 1690 1511 1382 1419 1438 1636 1701 1697 1563 1350 1354 1249 1161 1195 944 608 365 348 144
0 0 0 0 0 0 0 0 0 0 0 0 0 1 152 773 872 930 767 1082 1257 1261 1241 1477 1674 1512 1638 1719 1410 1393 1534 1488 1392 1469 1547 1638 1574 1494 1394 1319 1140 978 914 707 544 323 296 119 50
0 0 0 0 0 0 0 0 0 0 0 0 0 70 341 808 764 693 814 809 966 1088 1183 1319 1654 1855 1527 1482 1316 976 881 910 1086 977 704 849 923 1154 1157 1202 1075 948 657 517 358 257 43 89 23
0 0 0 0 0 0 0 0 0 0 0 0 40 209 504 863 770 623 690 929 1047 1018 1090 1296 1420 1085 892 1048 1091 853 479 141 85 183 299 282 245 517 765 809 886 745 531 386 222 45 22 64 0
0 0 0 0 0 0 0 0 0 0 0 0 10 320 295 794 827 607 376 581 754 873 932 930 1008 864 832 918 975 979 620 287 23 139 180 140 13 172 304 428 401 474 250 209 80 10 28 18 0
0 0 0 0 0 0 0 0 0 0 0 0 43 516 656 768 825 656 287 258 530 625 708 645 738 661 633 627 632 766 617 369 111 74 100 54 21 113 106 242 304 249 177 108 34 9 14 0 0
0 0 0 0 0 0 0 0 0 0 0 0 0 503 837 838 870 544 250 207 357 616 545 363 544 656 712 570 381 639 526 306 117 137 51 22 14 103 95 136 146 118 90 5 0 0 0 0 0
0 0 0 0 0 0 0 0 0 0 0 0 0 455 855 867 734 430 195 207 391 499 191 247 549 893 498 389 404 593 534 394 151 109 54 38 0 44 100 112 61 45 35 0 0 0 0 0 0
0 0 0 0 0 0 0 0 0 0 0 0 23 672 792 730 581 196 166 178 74 199 215 239 417 613 239 270 294 268 299 191 142 90 48 35 23 74 82 72 47 19 15 1 0 0 0 0 0
0 0 0 0 0 0 0 0 0 0 0 0 504 730 707 593 309 163 34 80 75 254 172 152 133 129 181 206 159 52 41 58 43 43 70 55 43 89 44 64 22 0 8 0 0 0 0 0 0
0 0 0 0 0 0 0 0 0 0 0 0 427 561 482 311 175 108 45 53 252 211 98 82 74 88 151 161 67 31 19 31 35 53 55 55 96 84 42 17 0 0 0 0 0 0 0 0 0
0 0 0 0 0 0 0 0 0 0 0 0 19 440 398 284 268 162 48 113 261 160 83 70 76 165 84 116 83 26 238 3 7 19 41 16 85 44 24 2 0 0 0 0 0 0 0 0 0
0 0 0 0 0 0 0 0 0 0 0 0 0 137 263 329 363 164 65 144 234 129 37 20 33 53 33 94 49 3 3 1 61 4 28 12 25 17 44 8 0 0 0 0 0 0 0 0 3
0 0 0 0 0 0 0 0 0 0 0 0 0 0 14 199 297 126 75 98 136 72 26 0 237 23 41 64 23 4 76 4 29 13 45 29 42 57 44 18 0 0 0 1 0 0 0 6 4
0 0 0 0 0 0 0 0 0 0 1 0 0 0 0 4 55 48 41 100 91 60 27 0 91 244 238 43 11 14 24 0 8 5 32 35 60 61 64 15 6 1 0 0 0 0 5 0 1
0 0 0 0 0 0 0 0 0 0 0 0 0 0 0 0 1 33 43 77 87 63 22 0 19 61 36 9 1 9 7 2 19 12 47 37 17 57 57 59 1 0 0 0 0 0 0 0 0
0 0 0 0 0 0 0 0 0 0 0 0 0 0 0 0 0 33 51 62 91 71 36 3 0 15 51 10 24 0 52 8 3 10 31 32 22 60 66 34 7 3 7 0 1 1 0 0 0
0 0 0 0 0 0 0 0 0 0 0 0 0 0 0 0 0 23 55 74 80 75 42 6 0 0 1 6 7 5 5 4 5 8 32 10 13 37 17 39 26 1 5 12 25 20 6 2 4
0 0 0 0 0 0 0 0 0 0 0 0 0 0 0 0 0 26 74 91 68 72 47 15 0 0 0 2 19 19 48 5 13 18 22 3 17 22 28 12 15 2 3 17 65 87 45 23 22
0 0 0 0 0 0 0 0 0 0 0 0 0 0 0 0 0 15 76 100 79 81 59 22 0 0 1 2 1 1 0 0 0 0 0 5 1 10 15 14 32 6 5 43 37 66 71 60 33
0 0 0 0 0 0 0 0 0 0 0 0 0 0 0 0 0 1 44 77 100 108 74 30 6 0 0 2 0 0 0 0 0 0 8 0 0 2 13 7 8 10 70 48 41 46 36 30 24
0 0 0 2 0 0 0 0 0 0 0 0 0 0 0 0 0 0 22 72 111 133 94 42 28 0 0 1 1 1 0 0 0 12 1 1 2 4 15 1 17 8 53 50 61 53 44 15 1
0 0 0 0 0 0 0 0 0 0 0 0 0 0 0 0 0 0 11 69 115 167 107 67 59 3 0 0 0 0 0 0 0 0 0 15 1 10 15 7 1 4 14 2 8 30 34 60 4
0 0 0 0 0 0 0 0 0 0 0 0 0 0 0 0 0 5 23 69 148 153 83 70 61 15 0 0 0 0 1 0 0 0 0 0 3 4 8 12 4 4 6 14 12 7 13 8 0
0 0 0 0 0 0 0 0 1 0 0 0 0 0 0 4 21 19 25 55 199 161 117 113 82 81 77 62 10 0 0 0 0 0 0 0 0 1 5 10 8 9 4 6 6 5 1 1 12
0 0 0 0 0 0 0 0 1 0 0 0 0 0 0 86 90 69 69 159 178 145 131 137 135 138 143 140 126 107 6 0 0 0 0 0 0 0 0 2 5 9 6 8 8 5 17 25 6

GFSSGP_con_mucape_072.txt.gz
CAPE
0 0 0 0 0 0 0 0 0 0 0 0 0 0 0 0 0 0 169 1017 920 969 1115 1258 1236 1432 1501 1543 1550 1711 1867 2031 2011 1918 1847 1818 1803 1673 1643 1654 1575 1561 1576 1153 1323 1269 1184 1105 971
0 0 0 0 0 0 0 0 0 0 0 0 0 0 0 0 606 505 703 980 1109 997 1093 1240 1359 1352 1549 1603 1599 1715 1930 1850 2024 1972 1925 1855 1772 1723 1779 1666 1579 1553 1355 1291 1349 1277 1113 953 889
0 0 0 0 0 0 0 0 0 0 0 0 0 0 0 1 715 633 654 808 1150 1218 1108 1217 1448 1450 1599 1585 1648 1664 1879 1745 1845 1936 1950 1832 1770 1765 1816 1633 1578 1538 1550 1693 1362 1178 975 857 616
0 0 0 0 0 0 0 0 0 0 0 0 0 0 0 92 555 709 807 1261 1269 1284 1181 1247 1426 1493 1618 1614 1664 1696 1670 1588 1664 1699 1819 1887 1852 1827 1780 1554 1475 1437 1459 1404 1086 1094 780 571 437
0 0 0 0 0 0 0 0 0 0 0 0 0 0 0 240 755 871 1293 1408 1229 1305 1237 1222 1433 1487 1661 1715 1744 1698 1616 1537 1524 1620 1672 1671 1758 1782 1630 1466 1422 1489 1517 1318 1157 919 630 405 291
0 0 0 0 0 0 0 0 0 0 0 0 0 0 0 406 842 1000 1454 1459 1285 1130 1395 1615 1558 1454 1595 1646 1591 1324 1548 1524 1491 1537 1532 1576 1376 1154 1357 1366 1248 1223 1287 979 909 697 496 290 154
0 0 0 0 0 0 0 0 0 0 0 0 0 0 28 625 972 1151 1266 1364 1351 1216 1178 1359 1910 1912 1517 1557 1192 802 858 1255 1393 907 947 932 1062 1119 840 1003 1096 1053 833 755 631 455 264 175 72
0 0 0 0 0 0 0 0 0 0 0 0 1 6 41 537 983 993 991 994 1071 1183 1199 1220 1406 2376 1519 1052 875 822 424 364 566 374 191 128 302 440 494 677 666 849 617 537 491 265 216 109 17
0 0 0 0 0 0 0 0 0 0 0 0 0 44 230 659 758 959 957 1005 1072 1036 1038 1221 1483 1714 1388 896 563 408 380 458 435 347 163 156 196 170 189 175 523 583 324 372 178 160 151 31 0
0 0 0 0 0 0 0 0 0 0 0 0 0 103 537 874 839 809 832 1005 1030 934 828 928 1204 1331 994 865 702 451 402 421 390 139 54 73 107 129 101 107 192 159 173 98 53 138 60 0 0
0 0 0 0 0 0 0 0 0 0 0 0 0 11 520 869 958 799 607 608 714 753 814 746 771 709 582 564 621 565 581 518 220 95 55 36 8 95 85 44 64 121 97 18 0 8 1 0 0
0 0 0 0 0 0 0 0 0 0 0 0 0 0 288 823 955 920 781 554 422 543 660 499 519 602 525 541 473 456 541 517 437 322 49 35 29 83 19 40 37 60 48 9 0 15 15 0 0
0 0 0 0 0 0 0 0 0 0 0 0 0 0 167 672 869 937 861 546 319 473 611 344 598 819 829 390 442 311 397 372 272 173 70 55 46 39 10 56 55 61 30 0 0 3 0 1 0
0 0 0 0 0 0 0 0 0 0 0 0 0 0 249 625 752 853 790 418 252 462 352 500 629 707 599 398 133 313 409 351 317 124 95 58 47 51 43 46 43 62 16 0 0 1 0 0 0
0 0 0 0 0 0 0 0 0 0 0 0 0 17 384 654 729 801 643 301 256 239 237 488 418 539 389 54 43 127 213 185 196 104 103 79 61 51 95 48 43 60 43 0 0 0 0 0 0
0 0 0 0 0 0 0 0 0 0 0 0 0 10 443 576 691 660 502 242 130 160 266 188 439 434 315 83 36 65 184 329 66 152 74 51 88 101 99 41 54 30 79 0 0 0 0 0 0
0 0 0 0 0 0 0 0 0 0 0 0 0 0 277 408 560 512 334 206 122 174 269 314 410 359 248 41 42 46 20 174 39 40 47 46 79 103 76 35 70 60 50 10 0 0 0 0 0
0 0 0 0 0 0 0 0 0 0 0 0 0 0 0 90 329 353 221 172 124 268 203 251 360 433 44 0 63 58 50 5 83 18 9 18 55 56 77 22 82 58 2 16 0 0 0 0 2
0 0 0 0 0 0 0 0 0 0 0 0 0 0 0 0 49 205 202 207 123 271 174 90 23 260 4 1 146 17 1 27 10 5 34 48 4 46 50 79 83 19 0 0 0 0 0 0 0
0 0 0 0 0 0 0 0 0 0 0 0 0 0 0 0 0 61 109 209 167 223 128 78 35 48 59 3 58 4 0 47 7 55 60 43 27 17 51 66 67 0 0 0 0 0 0 1 7
0 0 0 0 0 0 0 0 0 0 0 0 0 0 0 0 0 19 67 103 146 153 97 59 7 36 45 37 243 40 0 2 8 42 35 59 30 44 56 52 43 0 0 0 3 0 1 0 12
0 0 0 0 0 0 0 0 0 0 0 0 0 0 0 0 0 18 21 33 112 117 97 69 27 35 1 55 21 2 0 0 7 3 21 54 44 36 38 42 14 21 5 0 0 0 0 4 0
0 0 0 0 0 0 0 0 0 0 0 0 0 0 0 0 0 14 20 14 63 97 84 75 39 4 1 38 9 6 7 0 12 3 1 41 42 54 39 13 26 34 1 3 0 0 0 15 6
0 0 0 0 0 0 0 0 0 0 0 0 0 0 0 0 0 1 14 23 44 72 84 84 51 9 1 13 4 6 37 5 1 1 8 22 25 9 47 35 8 7 12 2 1 0 2 59 37
0 0 0 0 0 0 0 0 0 0 0 0 0 0 0 0 0 0 7 14 30 53 84 76 76 30 2 1 4 4 7 8 6 4 2 4 7 10 0 19 20 15 5 5 1 1 0 40 54
0 0 0 0 0 0 0 0 0 0 0 0 0 0 0 0 0 0 0 4 39 68 89 86 100 54 1 0 1 4 5 0 0 2 0 0 0 1 3 14 8 19 12 16 3 0 4 42 48
2 0 0 0 0 0 0 0 0 0 0 0 0 0 0 0 0 0 0 10 37 68 88 89 90 53 0 0 0 1 3 0 0 0 0 4 5 0 13 25 10 25 25 16 10 0 16 0 19
12 0 0 0 0 0 0 0 0 0 0 0 0 0 0 0 0 0 2 5 31 55 64 112 69 36 0 0 0 0 0 0 0 0 0 10 0 0 13 26 27 41 39 9 22 1 26 15 45
0 0 0 0 0 0 0 0 19 0 0 0 0 0 3 9 1 0 7 11 23 30 47 145 69 80 46 19 0 0 0 0 0 0 0 2 0 0 3 11 35 39 23 14 0 18 16 9 14
0 0 0 0 0 0 0 0 21 2 0 0 0 0 40 25 28 3 0 0 4 31 91 133 136 128 117 127 131 97 17 0 0 0 0 0 0 0 0 5 5 18 25 16 14 29 32 36 29

GFSSGP_con_mucape_075.txt.gz
CAPE
0 0 0 0 0 0 0 0 0 0 0 0 0 0 0 0 0 0 114 1342 1275 1313 1300 1312 999 1277 1565 1620 1647 1885 2117 2102 2114 2058 1998 1980 1967 1790 1681 1755 1723 1722 1740 1770 1484 1468 1317 1053 1187
0 0 0 0 0 0 0 0 0 0 0 0 0 0 0 0 213 231 889 1265 1313 1462 1427 1524 1153 1320 1584 1627 1754 1752 2213 2321 2254 2184 2118 2073 1937 1838 1839 1824 1766 1805 1801 1610 1496 1502 1236 1210 1060
0 0 0 0 0 0 0 0 0 0 0 0 0 0 0 0 637 523 748 1472 1465 1464 1434 1465 1118 1242 1362 1633 1726 1712 1877 2061 2195 2156 2214 2137 2018 2023 2024 1826 1800 1780 1717 1835 1504 1363 1254 1080 862
0 0 0 0 0 0 0 0 0 0 0 0 0 0 0 42 746 822 848 1561 1703 1563 1448 1317 1241 1320 1306 1682 1696 1834 1509 1717 2013 2066 2133 2148 2148 2166 2001 1788 1832 1847 1868 1849 1643 1292 1080 818 637
0 0 0 0 0 0 0 0 0 0 0 0 0 0 0 227 703 918 1396 1522 1812 1468 1589 1606 1436 1512 1535 1698 1667 1743 1688 1381 1840 1963 1958 1999 2043 2042 1612 1538 1692 1524 1732 1699 1462 1185 892 641 466
0 0 0 0 0 0 0 0 0 0 0 0 0 0 0 442 1003 1216 1592 1739 1804 1748 1363 1424 1549 1498 1557 1524 1588 1467 1506 1383 1666 1744 1829 1832 1601 1540 1337 1175 1135 1398 1548 1366 1150 876 710 532 293
0 0 0 0 0 0 0 0 0 0 0 0 0 0 0 631 1028 1335 1759 1804 1788 1838 1908 1630 1514 1687 1471 1393 1413 1196 995 998 1366 1294 1010 660 526 596 677 884 1072 1241 1142 1089 872 662 483 376 168
0 0 0 0 0 0 0 0 0 0 0 0 0 0 0 232 934 1264 1451 1733 1766 1638 1814 1643 1761 2030 1891 1870 1270 1091 878 615 624 472 355 228 138 156 330 510 909 830 941 695 655 473 366 221 89
0 0 0 0 0 0 0 0 0 0 0 0 0 0 34 296 961 1074 1241 1380 1564 1413 1486 1322 1915 1774 1924 1820 1134 814 613 634 404 451 196 139 183 98 102 159 301 620 466 397 424 349 210 116 39
0 0 0 0 0 0 0 0 0 0 0 0 0 0 354 676 971 1231 1268 1458 1489 1505 1358 1338 1345 1244 1869 1342 1020 1081 938 993 764 297 274 313 169 93 43 62 207 237 214 223 256 211 130 63 31
0 0 0 0 0 0 0 0 0 0 0 0 0 0 0 573 918 1164 1077 1274 1479 1434 1234 1117 1131 1659 1426 1036 896 694 831 983 583 369 269 250 256 110 109 64 110 84 148 276 252 180 98 49 12
0 0 0 0 0 0 0 0 0 0 0 0 0 0 0 0 801 1138 1068 1013 1167 1112 1187 962 930 1020 963 855 881 667 376 354 319 291 216 175 306 85 45 43 107 92 89 252 257 169 41 6 0
0 0 0 0 0 0 0 0 0 0 0 0 0 0 0 0 0 811 1120 837 924 1010 979 815 722 559 432 597 852 574 383 354 259 167 57 96 178 183 79 34 166 54 55 168 122 28 5 0 0
0 0 0 0 0 0 0 0 0 0 0 0 0 0 0 0 1 513 919 805 766 760 838 687 797 604 568 366 739 823 414 238 312 237 96 78 175 201 57 100 135 68 64 63 32 21 17 0 0
0 0 0 0 0 0 0 0 0 0 0 0 0 0 0 0 258 746 823 959 911 653 713 574 371 520 630 634 332 319 176 199 274 212 88 120 123 74 40 132 64 44 66 102 74 59 20 0 0
0 0 0 0 0 0 0 0 0 0 0 0 0 0 0 0 296 751 789 767 829 630 456 337 507 633 696 398 280 35 193 240 185 152 65 64 74 126 47 65 38 45 50 101 78 53 4 0 0
0 0 0 0 0 0 0 0 0 0 0 0 0 0 0 0 255 639 538 647 778 508 436 262 511 275 524 594 443 42 77 113 191 155 53 65 29 63 91 42 31 37 7 74 48 29 1 2 0
0 0 0 0 0 0 0 0 0 0 0 0 0 0 0 0 2 318 360 558 670 414 340 208 204 327 497 333 205 48 22 25 136 71 40 57 18 36 57 36 35 36 63 79 47 0 0 8 0
0 0 0 0 0 0 0 0 0 0 0 0 0 0 0 0 0 35 282 358 497 314 199 232 117 343 360 139 5 31 27 19 18 48 95 15 25 69 37 37 42 42 48 64 15 0 0 0 0
0 0 0 0 0 0 0 0 0 0 0 0 0 0 0 0 0 28 280 343 329 202 229 265 117 93 131 10 2 53 29 0 36 15 25 83 50 50 20 32 33 21 42 66 31 1 0 2 1
0 0 0 0 0 0 0 0 0 0 0 0 0 0 0 0 0 0 214 313 341 196 255 248 134 127 50 18 17 91 50 4 38 7 29 11 42 20 25 35 13 19 33 7 0 0 0 0 1
0 0 0 0 0 0 0 0 0 0 0 0 0 0 0 0 0 0 119 225 307 278 216 228 111 85 29 16 66 7 23 6 50 3 38 25 13 23 27 17 35 51 22 0 3 1 0 0 1
0 0 0 0 0 0 0 0 0 0 0 0 0 0 0 0 0 0 61 194 260 203 216 209 94 90 25 16 45 9 11 28 3 69 57 55 39 42 37 24 26 39 0 0 0 0 0 3 30
0 0 0 0 0 0 0 0 0 0 0 0 0 0 0 0 0 0 40 120 177 123 168 200 105 93 33 14 14 21 8 3 0 26 1 30 71 33 11 25 10 12 1 0 0 0 0 6 23
0 0 0 0 0 0 0 0 0 0 0 0 0 0 0 0 0 8 90 108 126 75 78 174 114 99 38 12 17 3 4 6 7 0 0 13 13 1 23 19 30 9 4 6 0 0 0 0 0
0 0 0 0 0 0 0 0 0 0 0 0 0 0 0 0 0 1 119 128 106 26 16 124 116 99 43 3 5 4 4 4 16 10 12 9 1 2 2 16 20 7 5 9 13 1 0 0 2
0 0 8 0 0 0 0 0 0 0 0 0 0 0 0 1 0 0 71 104 95 3 80 71 118 101 37 2 4 4 1 1 2 0 1 1 2 1 11 3 12 22 25 21 12 13 5 1 0
11 11 40 20 0 0 0 0 0 0 0 0 0 0 6 7 4 0 52 44 39 9 152 51 100 86 35 2 5 6 4 2 4 0 4 4 8 0 0 4 10 14 8 24 16 9 6 3 1
23 0 24 1 0 0 0 23 2 0 0 0 0 8 33 10 4 4 11 27 10 11 216 97 120 88 13 0 1 11 8 5 0 0 3 1 1 0 0 7 16 7 7 32 30 1 6 4 5
24 24 15 0 3 36 0 0 0 0 0 1 3 28 67 16 95 4 17 42 40 183 186 100 138 120 42 14 0 0 9 9 2 0 0 0 0 0 0 3 6 29 37 27 39 1 5 3 2

GFSSGP_con_mucape_078.txt.gz
CAPE
0 0 0 0 0 0 0 0 0 0 0 0 0 0 0 0 0 0 540 1523 1439 1689 1947 1474 1143 1423 1719 1783 1826 2036 2184 2127 2100 2073 2049 2072 2089 2065 1847 1794 1960 1977 1976 1907 1582 1617 1552 1443 1348
0 0 0 0 0 0 0 0 0 0 0 0 0 0 0 0 0 120 1138 1392 1434 1535 2040 1940 1227 1438 1797 1891 1986 2119 2296 2318 2212 2106 2131 2173 2158 2015 1844 1826 1932 2000 2108 2182 1822 1579 1547 1367 1240
0 0 0 0 0 0 0 0 0 0 0 0 0 0 0 0 178 194 620 1532 1562 1647 1896 2001 1274 1359 1769 1900 1944 1961 2201 2232 2182 2194 2304 2301 2168 2050 1969 1862 1951 2093 2151 2227 1909 1594 1502 1265 1029
0 0 0 0 0 0 0 0 0 0 0 0 0 0 0 0 400 412 807 1536 1584 1762 1828 1624 1130 1184 1699 1826 1917 1835 1926 2026 2134 2133 2297 2324 2202 2115 1918 1865 1987 2177 2169 2050 1766 1437 1359 991 826
0 0 0 0 0 0 0 0 0 0 0 0 0 0 0 5 497 958 1222 1709 1785 2010 2046 1989 1082 1177 1415 1842 1941 1882 1709 1921 2093 2142 2173 2165 2105 1982 1612 1795 1860 1924 1956 1833 1607 1455 1086 856 674
0 0 0 0 0 0 0 0 0 0 0 0 0 0 0 160 541 1139 1595 1962 2244 2226 2260 2228 1458 1400 1425 1582 1688 1771 1575 1532 1889 2035 1848 1842 1583 1652 1371 1295 1623 1664 1301 1241 1372 1115 920 699 512
0 0 0 0 0 0 0 0 0 0 0 0 0 0 0 16 648 1486 1770 2055 2456 2398 2386 2390 1888 1764 1335 1345 1463 1434 1601 1322 1167 1488 1169 922 646 862 703 688 820 1107 1038 1191 1126 923 721 532 349
0 0 0 0 0 0 0 0 0 0 0 0 0 0 0 0 859 1754 1913 1939 2164 2604 2680 1955 2092 1921 2099 2000 1207 1284 1110 996 972 920 532 353 351 335 260 221 429 554 972 1019 906 710 507 342 291
0 0 0 0 0 0 0 0 0 0 0 0 0 0 0 0 522 1750 2015 1945 2066 2394 2511 2283 2197 1936 2033 2196 1979 1270 1077 818 623 512 348 445 615 294 383 280 424 486 567 633 576 465 337 285 223
0 0 0 0 0 0 0 0 0 0 0 0 0 0 0 0 111 1388 1677 1811 2123 2250 2300 2341 1946 2279 1977 1931 2145 1991 1710 1243 1051 1047 881 1006 507 379 494 279 339 286 243 341 266 320 272 250 212
0 0 0 0 0 0 0 0 0 0 0 0 0 0 0 0 0 429 1467 1459 1857 1948 2008 2142 2325 2209 2126 1877 1756 2042 1636 1394 1371 1173 842 859 555 328 78 151 396 296 195 298 246 282 386 335 250
0 0 0 0 0 0 0 0 0 0 0 0 0 0 0 0 0 9 503 1439 1646 1885 1886 1913 1717 1674 1724 1818 1530 1559 1605 1524 1481 1240 938 518 442 234 145 124 207 144 244 183 471 685 423 331 182
0 0 0 0 0 0 0 0 0 0 0 0 0 0 0 0 0 0 9 503 1507 1796 1808 1853 1535 1258 1343 1478 1181 1372 1438 998 1068 1194 1102 574 382 424 328 334 233 98 137 117 590 350 291 250 225
0 0 0 0 0 0 0 0 0 0 0 0 0 0 0 0 0 0 0 268 1202 1669 1854 1884 1540 1325 1369 1147 756 1137 1161 917 731 722 966 888 534 333 184 146 243 109 49 89 345 246 286 237 209
0 0 0 0 0 0 0 0 0 0 0 0 0 0 0 0 0 0 0 433 1163 1591 1780 1812 1331 1052 1132 1132 570 900 573 810 691 542 568 325 246 319 125 105 158 90 44 71 234 244 201 181 165
0 0 0 0 0 0 0 0 0 0 0 0 0 0 0 0 0 0 63 534 1147 1555 1695 1556 1022 1210 1211 730 611 626 778 640 397 255 273 179 189 258 200 115 78 45 51 57 185 172 161 154 162
0 0 0 0 0 0 0 0 0 0 0 0 0 0 0 0 0 0 177 754 1248 1577 1720 1560 1141 1025 848 495 323 336 392 97 163 182 145 155 199 188 217 135 117 28 40 50 145 173 192 150 153
0 0 0 0 0 0 0 0 0 0 0 0 0 0 0 0 0 0 168 843 1300 1516 1752 1470 840 851 652 440 151 317 151 56 57 119 121 35 70 91 75 161 28 33 26 6 125 194 173 180 165
0 0 0 0 0 0 0 0 0 0 0 0 0 0 0 0 0 0 113 848 1270 1569 1699 1396 810 710 492 293 170 178 210 81 21 59 46 91 45 27 96 48 43 15 17 20 43 172 175 150 150
0 0 0 0 0 0 0 0 0 0 0 0 0 0 0 0 0 0 161 892 1267 1508 1586 1278 926 512 392 264 210 179 19 50 107 75 49 85 185 90 3 40 12 34 15 23 97 169 154 148 134
0 0 0 0 0 0 0 0 0 0 0 0 0 0 0 0 0 0 128 827 1164 1443 1516 1187 931 849 518 441 184 317 38 44 52 41 22 53 221 30 27 32 50 21 12 7 75 150 166 110 124
0 0 0 0 0 0 0 0 0 0 0 0 0 0 0 0 0 0 5 533 994 1265 1394 1165 1009 576 645 441 207 158 28 4 43 20 2 32 20 35 26 29 35 14 24 33 54 90 163 147 112
0 0 0 0 0 0 0 0 0 0 0 0 0 0 0 0 0 1 6 162 693 1139 1305 1210 981 514 519 290 133 116 31 38 54 17 0 10 7 8 14 5 47 11 12 90 161 118 138 117 109
1 0 0 2 17 0 0 0 0 0 0 0 0 0 0 0 6 0 0 209 600 1045 1214 975 719 341 392 305 150 62 12 43 111 26 30 34 18 11 17 39 38 22 9 51 76 26 38 80 81
1 0 0 0 0 0 0 0 0 0 0 0 0 0 3 63 83 1 139 337 670 1039 654 395 560 194 149 179 81 70 66 66 31 64 15 53 6 24 14 23 10 33 43 38 48 22 20 32 64
0 0 0 0 0 0 0 0 12 0 0 0 0 0 140 348 307 0 282 397 612 861 399 178 313 132 118 80 51 69 39 11 16 49 91 78 32 43 49 23 10 8 11 9 7 0 1 2 25
40 43 29 2 0 0 0 2 14 7 6 1 7 0 0 267 526 64 137 535 632 708 466 161 217 148 135 38 17 88 56 41 28 26 7 12 7 8 21 1 7 17 4 2 0 6 0 1 0
79 52 11 54 0 0 4 26 23 23 18 6 5 3 0 0 237 92 269 449 594 249 198 201 186 157 126 57 10 7 30 35 18 0 1 29 31 30 34 0 6 2 20 1 2 8 0 0 0
68 88 34 26 55 0 0 108 0 0 0 0 0 0 3 64 189 136 206 229 180 172 77 153 136 164 138 92 4 7 5 22 15 2 0 8 3 0 3 0 12 8 3 3 7 2 2 0 9
45 44 69 20 2 69 78 46 27 0 1 0 6 1 78 186 91 30 7 18 72 87 78 250 145 174 142 62 7 8 11 26 34 24 4 5 17 5 0 0 0 5 7 0 10 1 8 11 0

GFSSGP_con_mucape_084.txt.gz
CAPE
0 0 0 0 0 0 0 0 0 0 0 0 0 0 0 0 8 146 1183 1189 1984 1575 1521 1477 1582 1841 1927 1991 2116 2020 2000 2009 2061 2113 2127 2163 2192 2166 2153 2031 2029 2214 2259 2150 1731 1734 1381 1373 1612
0 0 0 0 0 0 0 0 0 0 0 0 0 0 0 0 0 342 991 1214 1473 1212 1385 1539 1547 1746 1925 1937 1992 2172 2228 2192 2146 2185 2207 2188 2277 2184 2126 2034 2004 2252 2087 1877 1759 1587 1667 1674 1474
0 0 0 0 0 0 0 0 0 0 0 0 0 0 0 0 0 235 1274 1494 1347 1556 1261 1647 1483 1618 1883 1934 1965 2044 2283 2216 2150 2177 2277 2191 2095 2063 2050 1794 2023 2036 2184 1952 1771 1740 1772 1461 1204
0 0 0 0 0 0 0 0 0 0 0 0 0 0 0 0 121 349 1120 1119 1088 1427 1547 1364 1215 1489 1845 1956 2010 2072 2202 2241 2108 2099 2101 2329 2247 2032 1946 1671 1802 2099 2115 1767 1895 1856 1536 1157 1027
0 0 0 0 0 0 0 0 0 0 0 0 0 0 0 0 0 741 1192 991 1591 2102 2116 1585 1154 1457 1797 2015 2050 2073 2123 2252 2167 2101 2196 2203 2066 1836 1476 1644 1734 1964 1672 1832 1708 1717 1255 1046 972
0 0 0 0 0 0 0 0 0 0 0 0 0 0 0 0 1 373 1204 1771 2507 2618 2788 1820 1343 1475 1630 1817 1839 1764 1957 2145 2174 2083 2039 2179 2017 1500 1105 1210 1296 1238 1068 1035 1097 1123 1126 1006 934
0 0 0 0 0 0 0 0 0 0 0 0 0 0 0 0 27 547 1361 2190 2748 3021 3155 2319 1677 1415 1364 1510 1600 1657 1692 1587 1907 1969 1888 1791 1383 984 831 611 372 205 368 639 759 997 937 942 775
0 0 0 0 0 0 0 0 0 0 0 0 0 0 0 0 128 728 1491 1765 2257 3150 3319 2995 2340 1874 1693 1499 1374 1532 1687 1636 1697 1654 1582 1412 1012 785 547 423 35 162 232 315 636 651 824 637 548
0 0 0 0 0 0 0 0 0 0 0 0 0 0 0 0 0 730 1271 1700 2214 2699 2959 3217 2804 2522 2439 2219 1555 1357 1463 1601 1332 1231 1132 961 990 621 527 233 224 255 117 141 372 390 463 476 462
0 0 0 0 0 0 0 0 0 0 0 0 0 0 0 0 0 2 1119 1442 2200 2586 2670 2776 2531 2843 2751 1956 2026 1841 1760 1569 1437 1299 1081 1336 1147 691 473 239 127 152 90 135 201 212 280 251 250
0 0 0 0 0 0 0 0 0 0 0 0 0 0 0 0 0 0 16 906 1665 2123 2419 2901 2407 2905 2784 2150 2510 2307 2048 1816 1606 1557 1358 1380 1203 675 332 75 7 67 162 178 184 150 165 240 187
0 0 0 0 0 0 0 0 0 0 0 0 0 0 0 0 0 0 0 46 1207 1695 2221 3051 2403 2486 2532 2150 2169 2217 2282 2096 1741 1637 1297 1242 974 602 235 91 39 111 139 210 178 137 239 316 248
0 0 0 0 0 0 0 0 0 0 0 0 0 0 0 0 0 0 0 0 79 1245 1972 2391 2569 2524 2566 2540 2106 2349 2335 1787 1731 1695 1413 1147 1019 624 629 334 128 163 195 214 173 163 201 176 153
0 0 0 0 0 0 0 0 0 0 0 0 0 0 0 0 0 0 0 0 2 384 1745 2416 2568 2529 2371 2093 2091 2100 2110 2150 1898 1693 1373 1103 924 690 558 479 328 186 217 206 122 124 122 96 77
0 0 0 0 0 0 0 0 0 0 0 0 0 0 0 0 0 0 0 0 0 145 1147 2510 2589 2338 1981 1758 1813 1677 1866 1853 1762 1524 1310 1147 884 603 284 192 231 121 188 176 74 78 74 88 94
0 0 0 0 0 0 0 0 0 0 0 0 0 0 0 0 0 0 0 0 0 1 603 2435 2350 2086 1956 1711 1508 1309 1346 1563 1312 1359 1219 1082 776 589 352 147 165 271 146 67 41 40 75 83 70
0 0 0 0 0 0 0 0 0 0 0 0 0 0 0 0 0 0 0 0 0 0 572 2364 2370 2107 2143 1865 1371 1040 1336 1362 1154 1109 1293 902 685 447 369 248 229 80 48 56 42 45 70 70 54
0 0 0 0 0 0 0 0 0 0 0 0 0 0 0 0 0 0 0 0 0 2 1446 2542 2266 1962 1943 1604 1303 752 965 937 918 719 578 595 521 376 344 127 88 44 40 29 45 41 25 43 22
0 0 0 0 0 0 0 0 0 0 0 0 0 0 0 0 0 0 0 0 6 589 1879 2573 2149 1878 1802 1395 1003 741 527 725 398 312 195 366 341 321 146 102 58 10 31 39 41 40 39 49 28
0 0 0 0 0 0 2 6 0 0 2 0 0 0 0 0 0 0 0 2 350 1412 1824 2560 2153 1943 1777 1336 890 850 624 541 262 199 159 249 208 229 112 70 42 19 6 27 25 11 43 24 46
0 0 0 0 0 0 10 0 5 3 0 18 0 0 0 0 0 0 0 0 646 1556 2007 2416 2045 1971 1656 1247 1007 750 644 525 347 409 248 138 83 72 138 99 93 83 20 14 19 4 23 0 41
0 0 0 0 0 0 14 0 0 4 0 3 0 0 0 0 0 0 0 0 744 1242 2171 2282 2055 1819 1651 1304 936 636 400 396 215 279 232 185 167 131 142 31 24 27 29 26 31 4 14 43 3
0 0 17 18 31 0 0 0 0 0 2 0 3 9 0 0 0 1 4 13 813 1183 2153 2274 2009 1682 1461 1301 924 645 422 326 174 207 206 90 60 124 133 86 17 11 26 39 42 34 23 28 7
1 0 0 15 19 0 0 0 0 1 46 0 57 63 168 24 0 0 2 2 410 1044 2032 2257 1928 1604 1386 1300 926 802 502 291 201 131 79 175 51 0 23 15 12 15 1 28 42 23 21 24 39
0 1 0 0 0 0 2 9 1 59 35 9 55 131 112 52 84 271 308 20 71 1140 1892 2211 1911 1595 1464 1278 1223 805 735 349 274 135 80 166 22 0 9 5 5 8 1 8 35 4 9 28 5
0 0 0 0 0 0 0 2 38 54 129 40 49 0 11 4 182 286 230 89 207 1387 2040 1967 1832 1541 1431 1378 1088 767 497 232 229 206 65 3 9 2 11 0 2 13 2 9 31 30 14 17 11
6 5 2 0 0 0 0 0 45 43 6 37 23 6 0 3 53 156 67 321 393 1404 1938 1839 1722 1388 1378 1261 936 616 377 218 282 204 219 31 1 0 63 1 1 10 23 20 25 22 13 15 21
12 22 80 32 0 0 0 23 92 0 43 10 0 0 0 0 1 59 216 497 1230 1597 1574 1621 1516 1240 1163 1075 859 490 307 126 226 262 169 71 23 0 6 7 21 11 14 12 5 15 37 27 43
86 106 26 64 46 0 0 0 26 2 0 0 0 0 0 0 1 117 239 469 599 845 1150 1067 1083 1312 758 805 822 345 167 82 329 163 74 13 40 29 14 5 10 0 5 17 1 19 30 0 0
127 95 151 80 0 48 0 0 19 7 3 0 0 0 0 0 3 6 264 380 378 405 647 595 681 731 614 843 451 273 214 91 103 50 17 17 20 14 17 6 12 11 0 7 6 1 5 2 27

GFSSGP_con_mucape_087.txt.gz
CAPE
0 0 0 0 0 0 0 0 0 0 0 0 0 0 0 0 49 329 1431 1354 1320 1210 1318 1416 1662 1905 2000 1932 1816 1781 1931 2050 2106 2126 2142 2149 2128 2137 2048 1973 2089 2337 2475 2141 1808 1621 1619 1613 1503
0 0 0 0 0 0 0 0 0 0 0 0 0 0 0 0 244 1113 1445 1498 1314 1356 1396 1479 1577 1762 1961 2014 1923 1903 2092 2147 2198 2194 2265 2252 2228 2208 2066 1916 2029 2362 2466 2311 1745 1604 1653 1560 1438
0 0 0 0 0 0 0 0 0 0 0 0 0 0 0 0 626 890 1340 1396 1254 1124 1401 1570 1624 1718 1810 1868 2028 1985 2093 2108 2129 2190 2373 2358 2290 2106 1983 1916 2075 2351 2391 2175 1816 1854 1778 1459 1187
0 0 0 0 0 0 0 0 0 0 0 0 0 0 0 1 426 1049 1246 1287 1178 1023 1548 1418 1491 1627 1795 1858 1888 2057 2103 2014 2024 2081 2288 2389 2261 2175 1967 1762 1923 2409 2297 2075 1948 2148 1611 1128 1020
0 0 0 0 0 0 0 0 0 0 0 0 0 0 0 252 906 1055 1042 1348 1474 1436 1448 1296 1406 1635 1809 1921 1947 1956 2096 2127 2026 2090 2108 2271 2161 2034 1840 1699 1602 2073 2014 1462 1792 1785 1205 1057 1006
0 0 0 0 0 0 0 0 0 0 0 0 0 0 0 0 803 761 678 1609 1807 1732 1621 1173 1403 1615 1757 1831 1800 1864 2052 2184 2141 2130 2141 2228 2045 1730 1407 1466 1224 1076 838 807 1104 1096 1067 999 991
0 0 0 0 0 0 0 0 0 0 0 0 0 0 0 149 360 725 1066 2003 2317 2053 1702 1412 1394 1521 1609 1644 1590 1705 2010 2167 2153 2121 2086 2059 1875 1527 1041 874 596 337 299 268 418 885 929 958 745
0 0 0 0 0 0 0 0 0 0 0 0 0 0 0 79 769 773 1421 1552 2691 2405 2143 1581 1230 1276 1427 1499 1510 1554 1634 1493 1547 1736 1818 1943 1678 1143 863 749 574 483 181 110 164 519 718 782 540
0 0 0 0 0 0 0 0 0 0 0 0 0 0 0 23 233 1008 1305 1816 2156 2597 2343 2195 1369 1306 1241 1237 1350 1504 1602 1550 1636 1717 1689 1370 1412 929 903 649 372 239 7 137 204 219 447 301 375
0 0 0 0 0 0 0 0 0 0 0 0 0 0 0 0 11 388 750 1379 2070 2322 2724 2424 2066 1800 1671 1656 1308 1263 1443 1514 1333 1211 1105 1053 1039 838 726 530 261 178 133 166 143 162 173 154 270
0 0 0 0 0 0 0 0 0 0 0 0 0 0 0 0 0 0 449 651 2118 2202 2778 2546 2298 2398 2232 2075 1695 1264 1239 1176 1110 1047 928 1178 884 663 619 501 261 92 109 55 88 108 125 166 209
0 0 0 0 0 0 0 0 0 0 0 0 0 0 0 0 0 0 0 0 608 2234 2534 2494 2304 2399 2269 2233 1786 1724 1635 1370 1218 1094 1011 1216 960 644 521 565 248 75 75 98 56 51 145 133 185
0 0 0 0 0 0 0 0 0 0 0 0 0 0 0 0 0 0 0 0 0 1275 2436 2561 2515 2350 2204 2098 2067 1932 2059 1790 1491 1290 1148 1100 984 716 511 381 258 119 68 88 90 58 146 178 145
0 0 0 0 0 0 0 0 0 0 0 0 0 0 0 0 0 0 0 0 0 0 2084 2649 2661 2226 2081 1965 1903 1461 1967 2017 1659 1409 1133 1022 965 829 630 418 244 115 121 162 107 85 138 194 171
0 0 0 0 0 0 0 0 0 0 0 0 0 0 0 0 0 0 0 0 0 0 503 2559 2459 2229 1962 1952 1865 1776 1766 1696 1619 1394 1231 1087 1049 915 655 452 231 133 157 153 129 89 95 70 80
0 0 0 0 0 0 0 0 0 0 0 0 0 0 0 0 0 0 0 0 0 0 254 2492 2339 2315 2307 2031 1747 1499 1538 1720 1534 1327 1243 1072 943 876 748 619 346 185 190 130 107 72 57 34 42
0 0 0 0 0 0 0 0 0 0 0 0 0 0 0 0 0 0 0 0 0 0 230 2363 2304 2361 2159 1896 1579 1298 1311 1424 1545 1299 1166 1118 981 761 571 478 432 244 113 76 62 36 29 41 55
0 0 0 0 0 0 0 0 0 0 0 0 0 0 0 0 0 0 0 0 0 0 678 2124 2240 2211 1934 1784 1396 1152 792 1148 1223 1097 974 1025 850 710 550 386 283 193 92 84 39 11 20 49 26
0 0 0 0 0 0 0 0 0 0 0 0 0 0 0 0 0 0 0 0 0 0 1651 2010 2185 2132 1836 1530 1459 1178 608 1627 1068 818 849 828 736 594 434 323 167 82 48 63 51 35 31 39 23
0 0 0 0 0 0 0 0 0 0 0 0 0 0 0 0 0 0 0 0 0 20 1897 2046 2165 2123 1791 1519 1388 1239 787 534 577 752 606 562 493 431 374 254 158 103 74 29 34 8 26 37 27
0 0 0 0 0 0 0 0 0 0 0 0 0 1 2 0 0 0 0 0 0 907 1953 2142 2170 1996 1846 1543 1350 1279 416 443 435 387 186 202 270 286 253 194 107 80 39 6 18 27 26 28 35
0 0 0 0 0 0 5 0 0 0 0 0 27 36 11 1 0 0 2 0 351 1949 2125 2150 2065 2023 1766 1521 1350 859 554 517 389 236 208 115 103 220 232 137 66 64 46 40 39 28 11 10 0
0 0 0 0 0 0 0 0 0 0 0 0 144 89 2 10 0 0 2 0 363 2027 2233 2077 2050 1925 1607 1437 1293 765 667 648 437 197 254 214 114 99 80 111 74 116 78 61 46 13 15 30 2
0 0 0 0 0 0 0 0 0 4 6 74 77 50 74 56 25 58 56 9 75 1697 2115 2102 1999 1824 1635 1390 1187 1010 695 545 445 209 214 168 123 123 110 114 79 61 52 46 53 24 18 8 14
0 0 0 0 0 0 0 0 37 55 72 46 0 20 61 189 157 159 115 59 5 946 1878 2073 1930 1671 1604 1487 1207 1024 688 453 277 336 241 160 87 184 315 37 60 66 68 55 13 37 14 10 0
0 0 0 0 0 0 0 0 7 0 6 2 12 12 33 100 198 227 184 236 111 147 1614 1970 1848 1560 1514 1355 1142 1002 659 455 286 251 186 60 67 32 7 0 2 14 9 20 12 34 37 23 21
1 4 0 7 2 0 0 0 82 2 0 9 19 22 50 18 60 95 156 415 592 541 1542 1807 1801 1569 1415 1191 1153 965 750 525 328 184 140 79 37 19 20 16 11 7 15 6 6 32 38 25 18
0 16 27 38 1 0 0 0 20 2 1 0 0 10 1 3 6 32 47 186 645 731 664 1117 1318 1289 1213 1102 1104 888 804 418 251 277 181 86 14 11 8 30 33 11 15 25 19 23 27 7 15
28 53 61 80 40 0 0 0 8 0 0 0 0 1 0 0 0 25 63 167 156 226 220 227 451 787 1174 1177 979 870 752 204 329 364 162 105 43 15 4 13 12 12 6 26 27 13 12 22 6
39 76 63 25 11 26 23 0 0 0 1 0 0 0 0 0 0 6 32 88 72 126 200 410 643 777 1135 994 831 565 600 368 140 329 111 77 98 17 11 13 18 21 1 11 22 12 36 15 23

GFSSGP_con_mucape_090.txt.gz
CAPE
0 0 0 0 0 0 0 0 0 0 0 0 0 0 0 0 0 14 1227 1243 1081 1179 1483 1693 1706 1798 1867 1890 1838 1899 2025 2108 2099 2057 2005 2060 2145 2117 2124 2193 2290 2342 2455 2094 1799 1774 1868 1696 1639
0 0 0 0 0 0 0 0 0 0 0 0 0 0 0 0 696 1414 1322 1325 1109 1263 1493 1689 1778 1883 1931 1876 1885 1991 2168 2157 2232 2220 2174 2164 2229 2166 2087 2125 2233 2428 2487 2201 1944 1909 1889 1653 1495
0 0 0 0 0 0 0 0 0 0 0 0 0 0 0 0 1025 1380 1300 1235 1370 1337 1465 1575 1831 1976 1970 1905 1897 1977 2120 2153 2181 2241 2341 2333 2350 2322 2172 2023 1988 2495 2536 2295 1984 1899 1663 1442 1198
0 0 0 0 0 0 0 0 0 0 0 0 0 0 0 1 1029 1094 1352 1227 1138 1383 1439 1546 1688 1864 2005 2018 1959 1994 2025 1959 1978 2111 2390 2464 2469 2435 2152 1929 2051 2528 2376 2296 2197 2051 1243 1077 968
0 0 0 0 0 0 0 0 0 0 0 0 0 0 0 261 927 1494 1285 938 917 1297 1378 1537 1631 1710 1872 2058 2103 2029 1966 1921 1937 2057 2227 2375 2446 2247 2106 1807 1898 2200 1751 1565 1612 1377 923 1009 864
0 0 0 0 0 0 0 0 0 0 0 0 0 0 0 739 1274 1392 1240 757 872 1277 1215 1364 1490 1658 1838 1909 1865 1973 2028 1947 1979 1992 2069 2267 2221 2119 1957 1731 1520 1444 1013 882 1030 926 816 828 856
0 0 0 0 0 0 0 0 0 0 0 0 0 0 0 888 937 1327 1260 1288 1195 1350 1154 1332 1540 1653 1691 1749 1715 1779 1980 2049 2029 2031 2021 2086 2041 1856 1671 1534 1213 953 782 684 701 571 618 523 631
0 0 0 0 0 0 0 0 0 0 0 0 0 0 0 329 806 1189 1545 1512 1385 1523 1291 1234 1424 1588 1619 1595 1604 1778 1975 2085 2078 2048 1998 1979 1995 1813 1386 1144 930 724 684 596 533 333 338 385 307
0 0 0 0 0 0 0 0 0 0 0 0 0 0 0 665 932 1524 1848 1938 1656 1601 1673 1442 1273 1388 1463 1423 1475 1696 1854 1970 1956 1809 1775 1843 1943 1558 1280 998 785 513 425 414 348 177 115 140 211
0 0 0 0 0 0 0 0 0 0 0 0 0 0 32 894 1244 1401 1830 2008 2007 1956 1910 1663 1175 1242 1375 1376 1415 1546 1615 1531 1633 1705 1813 1742 1626 1304 1146 995 835 638 276 179 255 186 123 158 122
0 0 0 0 0 0 0 0 0 0 0 0 0 0 0 1 935 1364 1601 1834 1984 2088 2046 2145 1677 1221 1274 1394 1264 1348 1491 1493 1462 1650 1505 1343 1322 1054 1089 1022 736 553 222 177 178 89 102 112 86
0 0 0 0 0 0 0 0 0 0 0 0 0 0 0 0 0 59 1089 1508 1865 2229 2334 2377 2144 1647 1607 1823 1423 1117 1209 1327 1241 1096 1102 1069 1051 924 879 769 499 260 195 167 36 62 31 94 87
0 0 0 0 0 0 0 0 0 0 0 0 0 0 0 0 0 0 0 148 1354 2046 2513 2472 2508 2238 2065 2122 1916 1362 1185 1047 1006 1010 977 987 883 751 577 632 471 346 242 168 53 3 89 114 99
0 0 0 0 0 0 0 0 0 0 0 0 0 0 0 0 0 0 0 0 4 1907 2443 2591 2591 2457 2283 2323 2110 1773 1560 1413 1134 1021 998 1023 853 730 583 614 604 509 388 262 62 21 43 150 132
0 0 0 0 0 0 0 0 0 0 0 0 0 0 0 0 0 0 0 0 0 3 2078 2618 2590 2495 2185 2217 2180 1868 1918 1986 1594 1191 1137 1166 1017 891 790 613 571 456 496 262 178 26 64 110 111
0 0 0 0 0 0 0 0 0 0 0 0 0 0 0 0 0 0 0 0 0 0 1171 2530 2443 2616 2153 2047 2151 1665 1888 1921 2034 1544 1257 1134 994 948 889 720 593 487 362 235 275 75 34 76 98
0 0 0 0 0 0 0 0 0 0 0 0 0 0 0 0 0 0 0 0 0 0 4 2306 2446 2612 2421 1834 1972 1807 1862 1748 1909 1566 1308 1138 1044 1010 936 743 657 517 348 611 601 62 52 84 81
0 0 0 0 0 0 0 0 0 0 0 0 0 0 0 0 0 0 0 0 0 0 85 2132 2286 2458 2506 1853 1784 1563 1683 1717 1456 1425 1324 1173 1017 983 910 705 612 542 377 222 257 60 68 57 58
0 0 0 0 0 0 0 0 0 0 0 0 0 0 0 0 0 0 0 0 0 0 608 1761 2164 2214 2368 1777 1740 1338 1248 1417 1467 1811 1295 1056 1010 925 852 634 667 582 416 234 158 69 63 37 56
0 0 0 0 0 0 0 0 0 0 0 0 0 0 0 0 0 0 0 0 0 0 386 1868 2009 2099 2285 1864 1752 1458 1003 625 707 1126 1049 941 972 795 817 678 526 444 375 405 144 70 6 23 56
0 0 0 0 0 0 0 0 0 0 0 0 0 3 56 27 27 8 0 0 0 0 1330 1753 1804 1867 1833 1922 1565 1377 932 634 495 806 777 724 739 764 712 575 490 314 471 467 85 65 19 25 24
0 0 0 0 0 0 0 0 0 0 0 0 0 86 58 5 13 12 0 0 0 0 1050 1703 1754 1704 1724 1957 1657 1312 1030 546 282 370 626 552 559 552 482 428 277 122 279 105 119 96 59 30 14
0 0 0 0 0 0 0 0 0 0 23 15 24 85 84 38 38 28 11 14 29 509 1429 1698 1725 1649 1775 2001 1647 1358 1090 696 259 340 507 370 187 316 339 273 231 128 81 76 118 137 11 39 21
0 0 0 0 0 0 0 0 0 0 0 0 23 49 26 44 53 99 105 68 185 1689 1793 1694 1683 1605 1844 1827 1583 1429 1147 601 372 373 298 201 165 171 214 288 257 272 206 88 129 72 36 45 5
0 0 0 0 0 0 0 0 0 0 6 2 0 32 13 5 66 181 204 205 123 1236 1907 1722 1567 1613 1795 1702 1483 1347 971 524 523 400 312 227 274 190 138 128 110 49 32 136 88 97 69 48 24
0 4 0 0 0 0 0 0 2 2 17 0 1 1 0 0 7 52 154 300 283 396 1669 1566 1277 1485 1734 1599 1383 1103 750 650 557 487 273 196 212 194 149 100 96 174 133 49 42 66 67 21 2
0 0 13 3 0 0 0 0 11 2 0 0 0 0 1 5 0 22 84 257 532 272 969 1341 1197 1247 1507 1463 1179 975 910 705 451 314 371 256 171 251 44 36 103 86 74 31 70 43 15 12 4
6 6 9 8 0 0 2 3 75 16 4 6 0 0 7 1 0 12 58 108 264 500 628 1164 994 1138 1206 1166 1085 925 824 642 454 373 337 222 113 162 41 9 23 31 33 12 16 19 13 11 35
39 16 7 0 21 0 0 0 43 15 0 0 0 0 0 0 0 0 46 47 85 124 335 352 436 652 692 711 860 909 672 667 477 360 182 153 98 47 0 14 51 40 31 8 27 5 12 13 32
36 19 85 57 0 3 8 0 39 3 0 8 21 14 0 0 0 0 0 36 72 72 93 98 67 207 140 444 677 703 454 467 430 257 248 141 133 38 46 12 16 14 9 20 23 16 8 19 22